Observation data for Crowell on 11/19/2019      Previous  Date       Current Mesonet Observations  Soil Data  Daily Summary Page  Observations in Plain Language
KCR1 190600Z 32005KT 12/03 A2993 RMK A01 T01240026  RH  051%=      5-min Rain = 0
KCR1 190601Z 32005KT 12/03 A2993 RMK A01 T01240026  RH  051%=      5-min Rain = 0
KCR1 190602Z 32005KT 12/03 A2993 RMK A01 T01240026  RH  051%=      5-min Rain = 0
KCR1 190603Z 32005KT 13/03 A2993 RMK A01 T01250025  RH  051%=      5-min Rain = 0
KCR1 190604Z 32006KT 13/03 A2993 RMK A01 T01250026  RH  051%=      5-min Rain = 0
KCR1 190605Z 32005KT 13/03 A2993 RMK A01 T01250026  RH  051%=      5-min Rain = 0
KCR1 190606Z 32006KT 13/03 A2993 RMK A01 T01250026  RH  051%=      5-min Rain = 0
KCR1 190607Z 32006KT 13/03 A2993 RMK A01 T01250025  RH  051%=      5-min Rain = 0
KCR1 190608Z 32005KT 13/02 A2993 RMK A01 T01250024  RH  050%=      5-min Rain = 0
KCR1 190609Z 32006KT 13/02 A2993 RMK A01 T01250024  RH  050%=      5-min Rain = 0
KCR1 190610Z 32006KT 13/02 A2993 RMK A01 T01250024  RH  050%=      5-min Rain = 0
KCR1 190611Z 33006KT 13/03 A2993 RMK A01 T01250025  RH  050%=      5-min Rain = 0
KCR1 190612Z 33005KT 12/03 A2992 RMK A01 T01240025  RH  051%=      5-min Rain = 0
KCR1 190613Z 33005KT 12/03 A2992 RMK A01 T01230025  RH  051%=      5-min Rain = 0
KCR1 190614Z 33005KT 12/02 A2992 RMK A01 T01210024  RH  052%=      5-min Rain = 0
KCR1 190615Z 33005KT 12/02 A2992 RMK A01 T01200024  RH  052%=      5-min Rain = 0
KCR1 190616Z 33005KT 12/02 A2992 RMK A01 T01180024  RH  052%=      5-min Rain = 0
KCR1 190617Z 33004KT 12/02 A2992 RMK A01 T01170024  RH  053%=      5-min Rain = 0
KCR1 190618Z 33005KT 12/02 A2992 RMK A01 T01160023  RH  053%=      5-min Rain = 0
KCR1 190619Z 32004KT 12/02 A2992 RMK A01 T01160023  RH  053%=      5-min Rain = 0
KCR1 190620Z 32005KT 12/02 A2992 RMK A01 T01150023  RH  053%=      5-min Rain = 0
KCR1 190621Z 32005KT 12/02 A2992 RMK A01 T01150022  RH  053%=      5-min Rain = 0
KCR1 190622Z 32005KT 12/02 A2992 RMK A01 T01150023  RH  053%=      5-min Rain = 0
KCR1 190623Z 31004KT 12/02 A2992 RMK A01 T01170023  RH  053%=      5-min Rain = 0
KCR1 190624Z 32004KT 12/02 A2992 RMK A01 T01180024  RH  052%=      5-min Rain = 0
KCR1 190625Z 32004KT 12/02 A2992 RMK A01 T01190024  RH  052%=      5-min Rain = 0
KCR1 190626Z 31005KT 12/02 A2992 RMK A01 T01200024  RH  052%=      5-min Rain = 0
KCR1 190627Z 32005KT 12/02 A2992 RMK A01 T01200023  RH  052%=      5-min Rain = 0
KCR1 190628Z 32005KT 12/02 A2992 RMK A01 T01210023  RH  051%=      5-min Rain = 0
KCR1 190629Z 32005KT 12/02 A2992 RMK A01 T01210023  RH  051%=      5-min Rain = 0
KCR1 190630Z 32006KT 12/02 A2992 RMK A01 T01210024  RH  051%=      5-min Rain = 0
KCR1 190631Z 32005KT 12/03 A2992 RMK A01 T01210025  RH  052%=      5-min Rain = 0
KCR1 190632Z 32005KT 12/02 A2992 RMK A01 T01190024  RH  052%=      5-min Rain = 0
KCR1 190633Z 32005KT 12/03 A2992 RMK A01 T01180025  RH  053%=      5-min Rain = 0
KCR1 190634Z 32005KT 12/03 A2992 RMK A01 T01170025  RH  053%=      5-min Rain = 0
KCR1 190635Z 32006KT 12/02 A2993 RMK A01 T01150024  RH  054%=      5-min Rain = 0
KCR1 190636Z 32006KT 11/03 A2993 RMK A01 T01140025  RH  054%=      5-min Rain = 0
KCR1 190637Z 32005KT 11/03 A2993 RMK A01 T01120025  RH  055%=      5-min Rain = 0
KCR1 190638Z 32005KT 11/03 A2993 RMK A01 T01120025  RH  055%=      5-min Rain = 0
KCR1 190639Z 32005KT 11/03 A2993 RMK A01 T01110025  RH  055%=      5-min Rain = 0
KCR1 190640Z 32005KT 11/02 A2993 RMK A01 T01120024  RH  055%=      5-min Rain = 0
KCR1 190641Z 32005KT 11/02 A2993 RMK A01 T01130024  RH  054%=      5-min Rain = 0
KCR1 190642Z 32005KT 11/02 A2993 RMK A01 T01140024  RH  054%=      5-min Rain = 0
KCR1 190643Z 31005KT 12/02 A2993 RMK A01 T01150024  RH  054%=      5-min Rain = 0
KCR1 190644Z 31005KT 12/02 A2993 RMK A01 T01160024  RH  053%=      5-min Rain = 0
KCR1 190645Z 31005KT 12/02 A2993 RMK A01 T01160024  RH  053%=      5-min Rain = 0
KCR1 190646Z 31005KT 12/02 A2993 RMK A01 T01170024  RH  053%=      5-min Rain = 0
KCR1 190647Z 31005KT 12/02 A2993 RMK A01 T01170023  RH  053%=      5-min Rain = 0
KCR1 190648Z 31005KT 12/02 A2993 RMK A01 T01180023  RH  052%=      5-min Rain = 0
KCR1 190649Z 31005KT 12/02 A2993 RMK A01 T01190024  RH  052%=      5-min Rain = 0
KCR1 190650Z 30005KT 12/02 A2993 RMK A01 T01190023  RH  052%=      5-min Rain = 0
KCR1 190651Z 30005KT 12/02 A2993 RMK A01 T01200023  RH  051%=      5-min Rain = 0
KCR1 190652Z 30005KT 12/02 A2993 RMK A01 T01210023  RH  051%=      5-min Rain = 0
KCR1 190653Z 31005KT 12/02 A2993 RMK A01 T01210023  RH  051%=      5-min Rain = 0
KCR1 190654Z 31004KT 12/02 A2993 RMK A01 T01210023  RH  051%=      5-min Rain = 0
KCR1 190655Z 31003KT 12/02 A2993 RMK A01 T01210023  RH  051%=      5-min Rain = 0
KCR1 190656Z 31003KT 12/02 A2993 RMK A01 T01200023  RH  051%=      5-min Rain = 0
KCR1 190657Z 31002KT 12/02 A2993 RMK A01 T01190023  RH  052%=      5-min Rain = 0
KCR1 190658Z 31002KT 12/02 A2993 RMK A01 T01180024  RH  053%=      5-min Rain = 0
KCR1 190659Z 31002KT 12/02 A2993 RMK A01 T01150024  RH  054%=      5-min Rain = 0
KCR1 190700Z 31002KT 11/02 A2993 RMK A01 T01120024  RH  055%=      5-min Rain = 0
KCR1 190701Z 30002KT 11/02 A2993 RMK A01 T01100024  RH  055%=      5-min Rain = 0
KCR1 190702Z 29003KT 11/02 A2993 RMK A01 T01100023  RH  055%=      5-min Rain = 0
KCR1 190703Z 28003KT 11/02 A2993 RMK A01 T01100023  RH  055%=      5-min Rain = 0
KCR1 190704Z 27003KT 11/02 A2993 RMK A01 T01110023  RH  055%=      5-min Rain = 0
KCR1 190705Z 26003KT 11/02 A2993 RMK A01 T01100023  RH  055%=      5-min Rain = 0
KCR1 190706Z 27003KT 11/02 A2993 RMK A01 T01100023  RH  055%=      5-min Rain = 0
KCR1 190707Z 25002KT 11/02 A2993 RMK A01 T01100023  RH  055%=      5-min Rain = 0
KCR1 190708Z 27003KT 11/02 A2993 RMK A01 T01080023  RH  056%=      5-min Rain = 0
KCR1 190709Z 28003KT 11/02 A2993 RMK A01 T01080023  RH  056%=      5-min Rain = 0
KCR1 190710Z 27003KT 11/02 A2993 RMK A01 T01080023  RH  056%=      5-min Rain = 0
KCR1 190711Z 27003KT 11/02 A2993 RMK A01 T01070023  RH  056%=      5-min Rain = 0
KCR1 190712Z 27003KT 11/02 A2993 RMK A01 T01060023  RH  056%=      5-min Rain = 0
KCR1 190713Z 27003KT 11/02 A2993 RMK A01 T01060022  RH  056%=      5-min Rain = 0
KCR1 190714Z 27004KT 11/02 A2993 RMK A01 T01060022  RH  056%=      5-min Rain = 0
KCR1 190715Z 27004KT 10/02 A2993 RMK A01 T01040022  RH  057%=      5-min Rain = 0
KCR1 190716Z 27004KT 10/02 A2993 RMK A01 T01020022  RH  058%=      5-min Rain = 0
KCR1 190717Z 27003KT 10/02 A2993 RMK A01 T01000023  RH  059%=      5-min Rain = 0
KCR1 190718Z 27003KT 10/02 A2993 RMK A01 T00990023  RH  059%=      5-min Rain = 0
KCR1 190719Z 27004KT 10/02 A2993 RMK A01 T00970023  RH  060%=      5-min Rain = 0
KCR1 190720Z 27004KT 10/02 A2992 RMK A01 T00970023  RH  060%=      5-min Rain = 0
KCR1 190721Z 27005KT 10/02 A2992 RMK A01 T00960023  RH  060%=      5-min Rain = 0
KCR1 190722Z 27004KT 10/02 A2992 RMK A01 T00950022  RH  061%=      5-min Rain = 0
KCR1 190723Z 27005KT 09/02 A2992 RMK A01 T00940022  RH  061%=      5-min Rain = 0
KCR1 190724Z 27005KT 09/02 A2992 RMK A01 T00930022  RH  061%=      5-min Rain = 0
KCR1 190725Z 26006KT 09/02 A2992 RMK A01 T00930022  RH  061%=      5-min Rain = 0
KCR1 190726Z 26006KT 09/02 A2992 RMK A01 T00940022  RH  061%=      5-min Rain = 0
KCR1 190727Z 26006KT 10/02 A2992 RMK A01 T00970023  RH  060%=      5-min Rain = 0
KCR1 190728Z 26006KT 10/02 A2992 RMK A01 T00990023  RH  059%=      5-min Rain = 0
KCR1 190729Z 26006KT 10/02 A2992 RMK A01 T01010023  RH  058%=      5-min Rain = 0
KCR1 190730Z 26006KT 10/02 A2992 RMK A01 T01030023  RH  058%=      5-min Rain = 0
KCR1 190731Z 26006KT 11/02 A2992 RMK A01 T01050023  RH  057%=      5-min Rain = 0
KCR1 190732Z 26006KT 10/02 A2992 RMK A01 T01040023  RH  057%=      5-min Rain = 0
KCR1 190733Z 26006KT 10/02 A2992 RMK A01 T01030023  RH  058%=      5-min Rain = 0
KCR1 190734Z 26006KT 10/02 A2992 RMK A01 T01010022  RH  058%=      5-min Rain = 0
KCR1 190735Z 26006KT 10/02 A2992 RMK A01 T01000022  RH  058%=      5-min Rain = 0
KCR1 190736Z 26006KT 10/02 A2992 RMK A01 T01000022  RH  058%=      5-min Rain = 0
KCR1 190737Z 27006KT 10/02 A2992 RMK A01 T01040024  RH  057%=      5-min Rain = 0
KCR1 190738Z 27006KT 11/02 A2993 RMK A01 T01080024  RH  056%=      5-min Rain = 0
KCR1 190739Z 27006KT 11/02 A2993 RMK A01 T01110024  RH  055%=      5-min Rain = 0
KCR1 190740Z 27006KT 11/02 A2993 RMK A01 T01130024  RH  054%=      5-min Rain = 0
KCR1 190741Z 27007KT 11/03 A2993 RMK A01 T01140025  RH  054%=      5-min Rain = 0
KCR1 190742Z 27007KT 12/03 A2993 RMK A01 T01160026  RH  054%=      5-min Rain = 0
KCR1 190743Z 27007KT 12/03 A2993 RMK A01 T01180026  RH  053%=      5-min Rain = 0
KCR1 190744Z 27007KT 12/03 A2993 RMK A01 T01210026  RH  052%=      5-min Rain = 0
KCR1 190745Z 28007KT 12/03 A2993 RMK A01 T01230026  RH  052%=      5-min Rain = 0
KCR1 190746Z 27007KT 13/03 A2993 RMK A01 T01250026  RH  051%=      5-min Rain = 0
KCR1 190747Z 27007KT 13/03 A2993 RMK A01 T01260026  RH  051%=      5-min Rain = 0
KCR1 190748Z 27007KT 13/03 A2993 RMK A01 T01270026  RH  050%=      5-min Rain = 0
KCR1 190749Z 28007KT 13/03 A2993 RMK A01 T01270025  RH  050%=      5-min Rain = 0
KCR1 190750Z 28007KT 13/03 A2993 RMK A01 T01270025  RH  050%=      5-min Rain = 0
KCR1 190751Z 28007KT 13/03 A2993 RMK A01 T01280025  RH  050%=      5-min Rain = 0
KCR1 190752Z 28007KT 13/03 A2993 RMK A01 T01280026  RH  050%=      5-min Rain = 0
KCR1 190753Z 27007KT 13/03 A2993 RMK A01 T01280026  RH  050%=      5-min Rain = 0
KCR1 190754Z 27007KT 13/03 A2993 RMK A01 T01290026  RH  050%=      5-min Rain = 0
KCR1 190755Z 28007KT 13/03 A2993 RMK A01 T01300026  RH  049%=      5-min Rain = 0
KCR1 190756Z 28007KT 13/03 A2993 RMK A01 T01300026  RH  049%=      5-min Rain = 0
KCR1 190757Z 28007KT 13/03 A2993 RMK A01 T01300026  RH  049%=      5-min Rain = 0
KCR1 190758Z 28007KT 13/03 A2993 RMK A01 T01310026  RH  049%=      5-min Rain = 0
KCR1 190759Z 28007KT 13/03 A2993 RMK A01 T01310026  RH  049%=      5-min Rain = 0
KCR1 190800Z 28007KT 13/03 A2993 RMK A01 T01310027  RH  049%=      5-min Rain = 0
KCR1 190801Z 28007KT 13/03 A2993 RMK A01 T01310027  RH  049%=      5-min Rain = 0
KCR1 190802Z 28007KT 13/03 A2993 RMK A01 T01310027  RH  049%=      5-min Rain = 0
KCR1 190803Z 28006KT 13/03 A2993 RMK A01 T01320027  RH  049%=      5-min Rain = 0
KCR1 190804Z 28006KT 13/03 A2993 RMK A01 T01320027  RH  049%=      5-min Rain = 0
KCR1 190805Z 28006KT 13/03 A2993 RMK A01 T01320026  RH  049%=      5-min Rain = 0
KCR1 190806Z 28006KT 13/03 A2993 RMK A01 T01320026  RH  049%=      5-min Rain = 0
KCR1 190807Z 28006KT 13/03 A2993 RMK A01 T01320027  RH  049%=      5-min Rain = 0
KCR1 190808Z 28006KT 13/03 A2993 RMK A01 T01310027  RH  049%=      5-min Rain = 0
KCR1 190809Z 27006KT 13/03 A2993 RMK A01 T01300027  RH  049%=      5-min Rain = 0
KCR1 190810Z 27006KT 13/03 A2993 RMK A01 T01290027  RH  050%=      5-min Rain = 0
KCR1 190811Z 27006KT 13/03 A2993 RMK A01 T01280027  RH  050%=      5-min Rain = 0
KCR1 190812Z 27006KT 13/03 A2993 RMK A01 T01270027  RH  050%=      5-min Rain = 0
KCR1 190813Z 27006KT 13/03 A2993 RMK A01 T01260027  RH  051%=      5-min Rain = 0
KCR1 190814Z 27006KT 13/03 A2993 RMK A01 T01250027  RH  051%=      5-min Rain = 0
KCR1 190815Z 27006KT 12/03 A2993 RMK A01 T01240027  RH  051%=      5-min Rain = 0
KCR1 190816Z 27006KT 12/03 A2993 RMK A01 T01240027  RH  052%=      5-min Rain = 0
KCR1 190817Z 27006KT 12/03 A2993 RMK A01 T01240027  RH  052%=      5-min Rain = 0
KCR1 190818Z 27006KT 12/03 A2993 RMK A01 T01240027  RH  052%=      5-min Rain = 0
KCR1 190819Z 27005KT 12/03 A2993 RMK A01 T01240027  RH  052%=      5-min Rain = 0
KCR1 190820Z 27005KT 12/03 A2993 RMK A01 T01230027  RH  052%=      5-min Rain = 0
KCR1 190821Z 27005KT 12/03 A2993 RMK A01 T01220027  RH  052%=      5-min Rain = 0
KCR1 190822Z 27005KT 12/03 A2993 RMK A01 T01210026  RH  052%=      5-min Rain = 0
KCR1 190823Z 27005KT 12/03 A2993 RMK A01 T01210026  RH  052%=      5-min Rain = 0
KCR1 190824Z 27005KT 12/03 A2993 RMK A01 T01210026  RH  052%=      5-min Rain = 0
KCR1 190825Z 27005KT 12/03 A2993 RMK A01 T01210026  RH  052%=      5-min Rain = 0
KCR1 190826Z 27006KT 12/03 A2993 RMK A01 T01200026  RH  053%=      5-min Rain = 0
KCR1 190827Z 27006KT 12/03 A2993 RMK A01 T01200027  RH  053%=      5-min Rain = 0
KCR1 190828Z 27007KT 12/03 A2993 RMK A01 T01200027  RH  053%=      5-min Rain = 0
KCR1 190829Z 28007KT 12/03 A2993 RMK A01 T01210026  RH  052%=      5-min Rain = 0
KCR1 190830Z 28007KT 12/03 A2993 RMK A01 T01220027  RH  052%=      5-min Rain = 0
KCR1 190831Z 28007KT 12/03 A2993 RMK A01 T01220026  RH  052%=      5-min Rain = 0
KCR1 190832Z 28007KT 12/03 A2993 RMK A01 T01240027  RH  051%=      5-min Rain = 0
KCR1 190833Z 28007KT 13/03 A2993 RMK A01 T01250027  RH  051%=      5-min Rain = 0
KCR1 190834Z 28006KT 13/03 A2993 RMK A01 T01250026  RH  051%=      5-min Rain = 0
KCR1 190835Z 29006KT 13/03 A2993 RMK A01 T01260027  RH  051%=      5-min Rain = 0
KCR1 190836Z 28006KT 13/03 A2993 RMK A01 T01250027  RH  051%=      5-min Rain = 0
KCR1 190837Z 28007KT 13/03 A2993 RMK A01 T01250027  RH  051%=      5-min Rain = 0
KCR1 190838Z 28006KT 13/03 A2993 RMK A01 T01250027  RH  051%=      5-min Rain = 0
KCR1 190839Z 28005KT 13/03 A2993 RMK A01 T01250027  RH  051%=      5-min Rain = 0
KCR1 190840Z 28005KT 13/03 A2993 RMK A01 T01250026  RH  051%=      5-min Rain = 0
KCR1 190841Z 28005KT 13/03 A2993 RMK A01 T01260026  RH  051%=      5-min Rain = 0
KCR1 190842Z 28005KT 13/03 A2993 RMK A01 T01250026  RH  051%=      5-min Rain = 0
KCR1 190843Z 29006KT 13/03 A2993 RMK A01 T01250026  RH  051%=      5-min Rain = 0
KCR1 190844Z 29005KT 13/03 A2993 RMK A01 T01250027  RH  051%=      5-min Rain = 0
KCR1 190845Z 29005KT 13/03 A2993 RMK A01 T01250027  RH  051%=      5-min Rain = 0
KCR1 190846Z 29006KT 12/03 A2993 RMK A01 T01240027  RH  051%=      5-min Rain = 0
KCR1 190847Z 29006KT 12/03 A2993 RMK A01 T01240026  RH  051%=      5-min Rain = 0
KCR1 190848Z 29005KT 12/03 A2993 RMK A01 T01240026  RH  051%=      5-min Rain = 0
KCR1 190849Z 29005KT 12/03 A2993 RMK A01 T01240026  RH  051%=      5-min Rain = 0
KCR1 190850Z 30005KT 12/03 A2992 RMK A01 T01240026  RH  051%=      5-min Rain = 0
KCR1 190851Z 30005KT 12/03 A2992 RMK A01 T01240026  RH  051%=      5-min Rain = 0
KCR1 190852Z 31004KT 12/03 A2992 RMK A01 T01230027  RH  052%=      5-min Rain = 0
KCR1 190853Z 31004KT 12/03 A2992 RMK A01 T01220026  RH  052%=      5-min Rain = 0
KCR1 190854Z 31004KT 12/03 A2992 RMK A01 T01220026  RH  052%=      5-min Rain = 0
KCR1 190855Z 31004KT 12/03 A2992 RMK A01 T01200027  RH  053%=      5-min Rain = 0
KCR1 190856Z 31004KT 12/03 A2992 RMK A01 T01180027  RH  054%=      5-min Rain = 0
KCR1 190857Z 31004KT 12/03 A2992 RMK A01 T01160027  RH  054%=      5-min Rain = 0
KCR1 190858Z 31003KT 11/03 A2992 RMK A01 T01140026  RH  055%=      5-min Rain = 0
KCR1 190859Z 31003KT 11/03 A2992 RMK A01 T01110025  RH  056%=      5-min Rain = 0
KCR1 190900Z 31003KT 11/02 A2992 RMK A01 T01090024  RH  056%=      5-min Rain = 0
KCR1 190901Z 31003KT 11/02 A2992 RMK A01 T01080024  RH  056%=      5-min Rain = 0
KCR1 190902Z 31003KT 11/02 A2992 RMK A01 T01080024  RH  056%=      5-min Rain = 0
KCR1 190903Z 32003KT 11/02 A2993 RMK A01 T01080024  RH  056%=      5-min Rain = 0
KCR1 190904Z 32003KT 11/03 A2993 RMK A01 T01090025  RH  056%=      5-min Rain = 0
KCR1 190905Z 32003KT 11/03 A2993 RMK A01 T01100025  RH  056%=      5-min Rain = 0
KCR1 190906Z 32003KT 11/03 A2993 RMK A01 T01120025  RH  055%=      5-min Rain = 0
KCR1 190907Z 32004KT 11/03 A2993 RMK A01 T01120025  RH  055%=      5-min Rain = 0
KCR1 190908Z 32004KT 11/03 A2993 RMK A01 T01130026  RH  055%=      5-min Rain = 0
KCR1 190909Z 32004KT 11/03 A2993 RMK A01 T01110025  RH  055%=      5-min Rain = 0
KCR1 190910Z 33004KT 11/03 A2993 RMK A01 T01090025  RH  056%=      5-min Rain = 0
KCR1 190911Z 32005KT 11/03 A2993 RMK A01 T01070025  RH  057%=      5-min Rain = 0
KCR1 190912Z 32005KT 11/03 A2993 RMK A01 T01050025  RH  058%=      5-min Rain = 0
KCR1 190913Z 33005KT 11/03 A2993 RMK A01 T01050026  RH  058%=      5-min Rain = 0
KCR1 190914Z 33004KT 11/03 A2993 RMK A01 T01050026  RH  058%=      5-min Rain = 0
KCR1 190915Z 33004KT 10/03 A2993 RMK A01 T01040025  RH  058%=      5-min Rain = 0
KCR1 190916Z 33004KT 10/02 A2993 RMK A01 T01040024  RH  057%=      5-min Rain = 0
KCR1 190917Z 32004KT 11/03 A2993 RMK A01 T01050025  RH  058%=      5-min Rain = 0
KCR1 190918Z 32005KT 10/03 A2993 RMK A01 T01030025  RH  058%=      5-min Rain = 0
KCR1 190919Z 32005KT 10/03 A2993 RMK A01 T01030025  RH  058%=      5-min Rain = 0
KCR1 190920Z 32005KT 10/03 A2993 RMK A01 T01040025  RH  058%=      5-min Rain = 0
KCR1 190921Z 32005KT 11/03 A2993 RMK A01 T01060025  RH  057%=      5-min Rain = 0
KCR1 190922Z 32005KT 11/03 A2993 RMK A01 T01080025  RH  057%=      5-min Rain = 0
KCR1 190923Z 32005KT 11/03 A2993 RMK A01 T01080025  RH  056%=      5-min Rain = 0
KCR1 190924Z 32006KT 11/03 A2993 RMK A01 T01090025  RH  056%=      5-min Rain = 0
KCR1 190925Z 32006KT 11/03 A2993 RMK A01 T01090025  RH  056%=      5-min Rain = 0
KCR1 190926Z 32006KT 11/03 A2993 RMK A01 T01100025  RH  056%=      5-min Rain = 0
KCR1 190927Z 32006KT 11/03 A2993 RMK A01 T01100025  RH  056%=      5-min Rain = 0
KCR1 190928Z 32006KT 11/03 A2993 RMK A01 T01110025  RH  055%=      5-min Rain = 0
KCR1 190929Z 32007KT 11/03 A2993 RMK A01 T01110025  RH  055%=      5-min Rain = 0
KCR1 190930Z 32007KT 11/03 A2993 RMK A01 T01120025  RH  055%=      5-min Rain = 0
KCR1 190931Z 32007KT 11/03 A2993 RMK A01 T01140025  RH  054%=      5-min Rain = 0
KCR1 190932Z 32006KT 12/03 A2993 RMK A01 T01150025  RH  054%=      5-min Rain = 0
KCR1 190933Z 32006KT 12/03 A2993 RMK A01 T01160025  RH  053%=      5-min Rain = 0
KCR1 190934Z 32007KT 12/02 A2993 RMK A01 T01170024  RH  053%=      5-min Rain = 0
KCR1 190935Z 32007KT 12/02 A2993 RMK A01 T01170024  RH  053%=      5-min Rain = 0
KCR1 190936Z 32007KT 12/02 A2993 RMK A01 T01180024  RH  053%=      5-min Rain = 0
KCR1 190937Z 32006KT 12/02 A2993 RMK A01 T01180024  RH  052%=      5-min Rain = 0
KCR1 190938Z 32006KT 12/03 A2993 RMK A01 T01190025  RH  053%=      5-min Rain = 0
KCR1 190939Z 32005KT 12/03 A2993 RMK A01 T01180025  RH  053%=      5-min Rain = 0
KCR1 190940Z 32006KT 12/03 A2993 RMK A01 T01170025  RH  053%=      5-min Rain = 0
KCR1 190941Z 32005KT 12/02 A2993 RMK A01 T01160024  RH  053%=      5-min Rain = 0
KCR1 190942Z 32005KT 12/02 A2993 RMK A01 T01160024  RH  053%=      5-min Rain = 0
KCR1 190943Z 32005KT 12/03 A2993 RMK A01 T01160025  RH  054%=      5-min Rain = 0
KCR1 190944Z 32005KT 12/02 A2993 RMK A01 T01150024  RH  054%=      5-min Rain = 0
KCR1 190945Z 32005KT 12/03 A2993 RMK A01 T01150025  RH  054%=      5-min Rain = 0
KCR1 190946Z 31005KT 12/02 A2993 RMK A01 T01150024  RH  054%=      5-min Rain = 0
KCR1 190947Z 31005KT 12/02 A2993 RMK A01 T01160024  RH  053%=      5-min Rain = 0
KCR1 190948Z 31005KT 12/02 A2993 RMK A01 T01170024  RH  053%=      5-min Rain = 0
KCR1 190949Z 31005KT 12/02 A2993 RMK A01 T01180024  RH  053%=      5-min Rain = 0
KCR1 190950Z 31006KT 12/02 A2993 RMK A01 T01180024  RH  052%=      5-min Rain = 0
KCR1 190951Z 31006KT 12/02 A2993 RMK A01 T01180024  RH  052%=      5-min Rain = 0
KCR1 190952Z 32006KT 12/02 A2993 RMK A01 T01180023  RH  052%=      5-min Rain = 0
KCR1 190953Z 32006KT 12/02 A2993 RMK A01 T01190023  RH  052%=      5-min Rain = 0
KCR1 190954Z 32005KT 12/02 A2993 RMK A01 T01190023  RH  052%=      5-min Rain = 0
KCR1 190955Z 32005KT 12/02 A2993 RMK A01 T01190024  RH  052%=      5-min Rain = 0
KCR1 190956Z 31005KT 12/02 A2993 RMK A01 T01190024  RH  052%=      5-min Rain = 0
KCR1 190957Z 32004KT 12/02 A2993 RMK A01 T01190024  RH  052%=      5-min Rain = 0
KCR1 190958Z 32003KT 12/02 A2993 RMK A01 T01180024  RH  052%=      5-min Rain = 0
KCR1 190959Z 31003KT 12/02 A2993 RMK A01 T01170024  RH  053%=      5-min Rain = 0
KCR1 191000Z 30003KT 12/02 A2993 RMK A01 T01160024  RH  053%=      5-min Rain = 0
KCR1 191001Z 30004KT 12/02 A2993 RMK A01 T01150023  RH  053%=      5-min Rain = 0
KCR1 191002Z 30004KT 12/02 A2993 RMK A01 T01150023  RH  053%=      5-min Rain = 0
KCR1 191003Z 30004KT 12/02 A2993 RMK A01 T01150022  RH  053%=      5-min Rain = 0
KCR1 191004Z 31004KT 12/02 A2993 RMK A01 T01150023  RH  053%=      5-min Rain = 0
KCR1 191005Z 31004KT 11/02 A2993 RMK A01 T01140023  RH  053%=      5-min Rain = 0
KCR1 191006Z 31004KT 11/02 A2993 RMK A01 T01140023  RH  053%=      5-min Rain = 0
KCR1 191007Z 31005KT 11/02 A2993 RMK A01 T01130023  RH  054%=      5-min Rain = 0
KCR1 191008Z 31005KT 11/02 A2993 RMK A01 T01130023  RH  054%=      5-min Rain = 0
KCR1 191009Z 31005KT 11/02 A2993 RMK A01 T01130023  RH  054%=      5-min Rain = 0
KCR1 191010Z 31004KT 11/02 A2994 RMK A01 T01130023  RH  054%=      5-min Rain = 0
KCR1 191011Z 31004KT 11/02 A2994 RMK A01 T01140023  RH  054%=      5-min Rain = 0
KCR1 191012Z 31004KT 11/02 A2994 RMK A01 T01130023  RH  054%=      5-min Rain = 0
KCR1 191013Z 31004KT 11/02 A2994 RMK A01 T01120023  RH  054%=      5-min Rain = 0
KCR1 191014Z 31004KT 11/02 A2994 RMK A01 T01120023  RH  054%=      5-min Rain = 0
KCR1 191015Z 30004KT 11/02 A2994 RMK A01 T01110023  RH  054%=      5-min Rain = 0
KCR1 191016Z 30004KT 11/02 A2994 RMK A01 T01110023  RH  055%=      5-min Rain = 0
KCR1 191017Z 31004KT 11/02 A2994 RMK A01 T01100023  RH  055%=      5-min Rain = 0
KCR1 191018Z 31004KT 11/02 A2994 RMK A01 T01100023  RH  055%=      5-min Rain = 0
KCR1 191019Z 32004KT 11/02 A2994 RMK A01 T01100023  RH  055%=      5-min Rain = 0
KCR1 191020Z 32004KT 11/02 A2994 RMK A01 T01100023  RH  055%=      5-min Rain = 0
KCR1 191021Z 32004KT 11/02 A2994 RMK A01 T01090023  RH  055%=      5-min Rain = 0
KCR1 191022Z 33004KT 11/02 A2994 RMK A01 T01070023  RH  056%=      5-min Rain = 0
KCR1 191023Z 32004KT 11/02 A2994 RMK A01 T01060023  RH  056%=      5-min Rain = 0
KCR1 191024Z 33004KT 10/02 A2994 RMK A01 T01040023  RH  057%=      5-min Rain = 0
KCR1 191025Z 33005KT 10/02 A2994 RMK A01 T01020023  RH  058%=      5-min Rain = 0
KCR1 191026Z 33004KT 10/02 A2994 RMK A01 T01010022  RH  058%=      5-min Rain = 0
KCR1 191027Z 32004KT 10/02 A2994 RMK A01 T01000022  RH  059%=      5-min Rain = 0
KCR1 191028Z 32005KT 10/02 A2994 RMK A01 T00990022  RH  059%=      5-min Rain = 0
KCR1 191029Z 32004KT 10/02 A2994 RMK A01 T00980022  RH  059%=      5-min Rain = 0
KCR1 191030Z 32004KT 10/02 A2994 RMK A01 T00970023  RH  060%=      5-min Rain = 0
KCR1 191031Z 32004KT 10/02 A2994 RMK A01 T00970023  RH  060%=      5-min Rain = 0
KCR1 191032Z 32005KT 10/02 A2994 RMK A01 T00970023  RH  060%=      5-min Rain = 0
KCR1 191033Z 32005KT 10/02 A2994 RMK A01 T00970023  RH  060%=      5-min Rain = 0
KCR1 191034Z 32004KT 10/02 A2994 RMK A01 T00970023  RH  060%=      5-min Rain = 0
KCR1 191035Z 32004KT 10/02 A2994 RMK A01 T00960023  RH  060%=      5-min Rain = 0
KCR1 191036Z 32004KT 10/02 A2994 RMK A01 T00960023  RH  060%=      5-min Rain = 0
KCR1 191037Z 32004KT 10/02 A2994 RMK A01 T00960022  RH  060%=      5-min Rain = 0
KCR1 191038Z 32005KT 10/02 A2994 RMK A01 T00960022  RH  060%=      5-min Rain = 0
KCR1 191039Z 32005KT 10/02 A2994 RMK A01 T00970022  RH  059%=      5-min Rain = 0
KCR1 191040Z 32005KT 10/02 A2994 RMK A01 T00980022  RH  059%=      5-min Rain = 0
KCR1 191041Z 32005KT 10/02 A2994 RMK A01 T00990022  RH  059%=      5-min Rain = 0
KCR1 191042Z 32005KT 10/02 A2994 RMK A01 T01000022  RH  059%=      5-min Rain = 0
KCR1 191043Z 32006KT 10/02 A2994 RMK A01 T01000022  RH  058%=      5-min Rain = 0
KCR1 191044Z 32007KT 10/02 A2994 RMK A01 T01010022  RH  058%=      5-min Rain = 0
KCR1 191045Z 32006KT 10/02 A2994 RMK A01 T01020022  RH  058%=      5-min Rain = 0
KCR1 191046Z 32007KT 10/02 A2994 RMK A01 T01030022  RH  057%=      5-min Rain = 0
KCR1 191047Z 32006KT 10/02 A2994 RMK A01 T01040022  RH  057%=      5-min Rain = 0
KCR1 191048Z 32007KT 10/02 A2994 RMK A01 T01040022  RH  057%=      5-min Rain = 0
KCR1 191049Z 32007KT 10/02 A2994 RMK A01 T01040022  RH  057%=      5-min Rain = 0
KCR1 191050Z 32006KT 10/02 A2994 RMK A01 T01040021  RH  057%=      5-min Rain = 0
KCR1 191051Z 32006KT 10/02 A2994 RMK A01 T01040021  RH  057%=      5-min Rain = 0
KCR1 191052Z 32006KT 10/02 A2994 RMK A01 T01030021  RH  057%=      5-min Rain = 0
KCR1 191053Z 32006KT 10/02 A2994 RMK A01 T01030021  RH  057%=      5-min Rain = 0
KCR1 191054Z 32007KT 10/02 A2994 RMK A01 T01020020  RH  057%=      5-min Rain = 0
KCR1 191055Z 32007KT 10/02 A2994 RMK A01 T01010019  RH  057%=      5-min Rain = 0
KCR1 191056Z 32007KT 10/02 A2994 RMK A01 T01010019  RH  057%=      5-min Rain = 0
KCR1 191057Z 32006KT 10/02 A2994 RMK A01 T01010018  RH  056%=      5-min Rain = 0
KCR1 191058Z 32007KT 10/02 A2994 RMK A01 T01010018  RH  056%=      5-min Rain = 0
KCR1 191059Z 32006KT 10/02 A2994 RMK A01 T01010017  RH  056%=      5-min Rain = 0
KCR1 191100Z 32006KT 10/02 A2994 RMK A01 T01010016  RH  055%=      5-min Rain = 0
KCR1 191101Z 32006KT 10/02 A2995 RMK A01 T01020017  RH  055%=      5-min Rain = 0
KCR1 191102Z 32007KT 10/02 A2995 RMK A01 T01020016  RH  055%=      5-min Rain = 0
KCR1 191103Z 32007KT 10/01 A2995 RMK A01 T01020014  RH  054%=      5-min Rain = 0
KCR1 191104Z 32008KT 10/01 A2995 RMK A01 T01020014  RH  054%=      5-min Rain = 0
KCR1 191105Z 32007KT 10/01 A2995 RMK A01 T01020014  RH  054%=      5-min Rain = 0
KCR1 191106Z 32007KT 10/01 A2995 RMK A01 T01020014  RH  054%=      5-min Rain = 0
KCR1 191107Z 32007KT 10/01 A2995 RMK A01 T01020014  RH  054%=      5-min Rain = 0
KCR1 191108Z 32007KT 10/01 A2995 RMK A01 T01020013  RH  054%=      5-min Rain = 0
KCR1 191109Z 32008KT 10/01 A2995 RMK A01 T01020013  RH  054%=      5-min Rain = 0
KCR1 191110Z 32008KT 10/01 A2995 RMK A01 T01030012  RH  053%=      5-min Rain = 0
KCR1 191111Z 32008KT 10/01 A2995 RMK A01 T01030012  RH  053%=      5-min Rain = 0
KCR1 191112Z 32007KT 10/01 A2995 RMK A01 T01040012  RH  053%=      5-min Rain = 0
KCR1 191113Z 32007KT 10/01 A2995 RMK A01 T01040012  RH  053%=      5-min Rain = 0
KCR1 191114Z 32007KT 10/01 A2995 RMK A01 T01030013  RH  053%=      5-min Rain = 0
KCR1 191115Z 32007KT 10/01 A2995 RMK A01 T01030012  RH  053%=      5-min Rain = 0
KCR1 191116Z 32008KT 10/01 A2995 RMK A01 T01020012  RH  054%=      5-min Rain = 0
KCR1 191117Z 31009KT 10/01 A2995 RMK A01 T01020012  RH  053%=      5-min Rain = 0
KCR1 191118Z 31008KT 10/01 A2995 RMK A01 T01020012  RH  053%=      5-min Rain = 0
KCR1 191119Z 32008KT 10/01 A2995 RMK A01 T01020012  RH  054%=      5-min Rain = 0
KCR1 191120Z 31008KT 10/01 A2995 RMK A01 T01010012  RH  054%=      5-min Rain = 0
KCR1 191121Z 32008KT 10/01 A2995 RMK A01 T01010012  RH  054%=      5-min Rain = 0
KCR1 191122Z 32008KT 10/01 A2995 RMK A01 T01000011  RH  054%=      5-min Rain = 0
KCR1 191123Z 32008KT 10/01 A2995 RMK A01 T01000011  RH  054%=      5-min Rain = 0
KCR1 191124Z 32008KT 10/01 A2995 RMK A01 T01000011  RH  054%=      5-min Rain = 0
KCR1 191125Z 32008KT 10/01 A2995 RMK A01 T00990011  RH  054%=      5-min Rain = 0
KCR1 191126Z 32008KT 10/01 A2995 RMK A01 T00990011  RH  054%=      5-min Rain = 0
KCR1 191127Z 32008KT 10/01 A2995 RMK A01 T00990011  RH  054%=      5-min Rain = 0
KCR1 191128Z 32008KT 10/01 A2995 RMK A01 T00990011  RH  054%=      5-min Rain = 0
KCR1 191129Z 32009KT 10/01 A2995 RMK A01 T00980011  RH  054%=      5-min Rain = 0
KCR1 191130Z 32008KT 10/01 A2995 RMK A01 T00980010  RH  054%=      5-min Rain = 0
KCR1 191131Z 32008KT 10/01 A2995 RMK A01 T00980010  RH  054%=      5-min Rain = 0
KCR1 191132Z 32008KT 10/01 A2995 RMK A01 T00980010  RH  055%=      5-min Rain = 0
KCR1 191133Z 32008KT 10/01 A2995 RMK A01 T00970010  RH  055%=      5-min Rain = 0
KCR1 191134Z 32008KT 10/01 A2995 RMK A01 T00970010  RH  055%=      5-min Rain = 0
KCR1 191135Z 32008KT 10/01 A2995 RMK A01 T00970009  RH  054%=      5-min Rain = 0
KCR1 191136Z 32008KT 10/01 A2995 RMK A01 T00970010  RH  055%=      5-min Rain = 0
KCR1 191137Z 32007KT 10/01 A2995 RMK A01 T00970010  RH  055%=      5-min Rain = 0
KCR1 191138Z 31007KT 10/01 A2995 RMK A01 T00970010  RH  055%=      5-min Rain = 0
KCR1 191139Z 32007KT 10/01 A2995 RMK A01 T00960009  RH  055%=      5-min Rain = 0
KCR1 191140Z 32007KT 10/01 A2995 RMK A01 T00960009  RH  054%=      5-min Rain = 0
KCR1 191141Z 32007KT 10/01 A2995 RMK A01 T00960009  RH  055%=      5-min Rain = 0
KCR1 191142Z 32006KT 10/01 A2995 RMK A01 T00960010  RH  055%=      5-min Rain = 0
KCR1 191143Z 32006KT 10/01 A2995 RMK A01 T00960010  RH  055%=      5-min Rain = 0
KCR1 191144Z 32006KT 10/01 A2995 RMK A01 T00950010  RH  055%=      5-min Rain = 0
KCR1 191145Z 32006KT 10/01 A2995 RMK A01 T00950010  RH  055%=      5-min Rain = 0
KCR1 191146Z 32005KT 09/01 A2995 RMK A01 T00940010  RH  056%=      5-min Rain = 0
KCR1 191147Z 33005KT 09/01 A2995 RMK A01 T00940010  RH  056%=      5-min Rain = 0
KCR1 191148Z 33004KT 09/01 A2995 RMK A01 T00930010  RH  056%=      5-min Rain = 0
KCR1 191149Z 33003KT 09/01 A2995 RMK A01 T00920010  RH  056%=      5-min Rain = 0
KCR1 191150Z 32002KT 09/01 A2995 RMK A01 T00920010  RH  056%=      5-min Rain = 0
KCR1 191151Z 33002KT 09/01 A2995 RMK A01 T00910009  RH  057%=      5-min Rain = 0
KCR1 191152Z 33001KT 09/01 A2995 RMK A01 T00900009  RH  057%=      5-min Rain = 0
KCR1 191153Z 01000KT 09/01 A2995 RMK A01 T00870009  RH  058%=      5-min Rain = 0
KCR1 191154Z 00000KT 08/01 A2995 RMK A01 T00820008  RH  060%=      5-min Rain = 0
KCR1 191155Z 30000KT 08/01 A2995 RMK A01 T00790009  RH  061%=      5-min Rain = 0
KCR1 191156Z 30000KT 08/01 A2995 RMK A01 T00780010  RH  062%=      5-min Rain = 0
KCR1 191157Z 32000KT 08/01 A2995 RMK A01 T00780011  RH  063%=      5-min Rain = 0
KCR1 191158Z 28000KT 08/01 A2995 RMK A01 T00780010  RH  062%=      5-min Rain = 0
KCR1 191159Z 28001KT 08/01 A2995 RMK A01 T00780010  RH  062%=      5-min Rain = 0
KCR1 191200Z 29001KT 08/01 A2995 RMK A01 T00770010  RH  062%=      5-min Rain = 0
KCR1 191201Z 30002KT 08/01 A2995 RMK A01 T00770009  RH  062%=      5-min Rain = 0
KCR1 191202Z 29002KT 08/01 A2995 RMK A01 T00780009  RH  062%=      5-min Rain = 0
KCR1 191203Z 29002KT 08/01 A2995 RMK A01 T00800010  RH  061%=      5-min Rain = 0
KCR1 191204Z 30002KT 08/01 A2995 RMK A01 T00820009  RH  060%=      5-min Rain = 0
KCR1 191205Z 30003KT 08/01 A2995 RMK A01 T00830010  RH  060%=      5-min Rain = 0
KCR1 191206Z 31002KT 08/01 A2995 RMK A01 T00830010  RH  060%=      5-min Rain = 0
KCR1 191207Z 31003KT 08/01 A2995 RMK A01 T00830010  RH  060%=      5-min Rain = 0
KCR1 191208Z 32002KT 08/01 A2995 RMK A01 T00810010  RH  061%=      5-min Rain = 0
KCR1 191209Z 32003KT 08/01 A2995 RMK A01 T00810010  RH  061%=      5-min Rain = 0
KCR1 191210Z 32002KT 08/01 A2995 RMK A01 T00800010  RH  061%=      5-min Rain = 0
KCR1 191211Z 33002KT 08/01 A2995 RMK A01 T00790010  RH  061%=      5-min Rain = 0
KCR1 191212Z 33002KT 08/01 A2995 RMK A01 T00790010  RH  062%=      5-min Rain = 0
KCR1 191213Z 33002KT 08/01 A2995 RMK A01 T00780010  RH  062%=      5-min Rain = 0
KCR1 191214Z 34002KT 08/01 A2995 RMK A01 T00780010  RH  062%=      5-min Rain = 0
KCR1 191215Z 34002KT 08/01 A2995 RMK A01 T00770010  RH  063%=      5-min Rain = 0
KCR1 191216Z 33002KT 08/01 A2995 RMK A01 T00770010  RH  062%=      5-min Rain = 0
KCR1 191217Z 33002KT 08/01 A2995 RMK A01 T00770010  RH  063%=      5-min Rain = 0
KCR1 191218Z 32002KT 08/01 A2995 RMK A01 T00770010  RH  063%=      5-min Rain = 0
KCR1 191219Z 32002KT 08/01 A2995 RMK A01 T00760011  RH  063%=      5-min Rain = 0
KCR1 191220Z 32002KT 08/01 A2995 RMK A01 T00760011  RH  063%=      5-min Rain = 0
KCR1 191221Z 32002KT 08/01 A2995 RMK A01 T00750011  RH  064%=      5-min Rain = 0
KCR1 191222Z 33002KT 08/01 A2995 RMK A01 T00750011  RH  064%=      5-min Rain = 0
KCR1 191223Z 33002KT 08/01 A2995 RMK A01 T00750011  RH  064%=      5-min Rain = 0
KCR1 191224Z 33002KT 08/01 A2995 RMK A01 T00750011  RH  064%=      5-min Rain = 0
KCR1 191225Z 33002KT 07/01 A2995 RMK A01 T00740011  RH  064%=      5-min Rain = 0
KCR1 191226Z 33002KT 07/01 A2995 RMK A01 T00740011  RH  064%=      5-min Rain = 0
KCR1 191227Z 33002KT 07/01 A2995 RMK A01 T00730011  RH  064%=      5-min Rain = 0
KCR1 191228Z 34002KT 07/01 A2995 RMK A01 T00730011  RH  065%=      5-min Rain = 0
KCR1 191229Z 34002KT 07/01 A2995 RMK A01 T00730011  RH  064%=      5-min Rain = 0
KCR1 191230Z 34003KT 07/01 A2995 RMK A01 T00740011  RH  064%=      5-min Rain = 0
KCR1 191231Z 34003KT 07/01 A2995 RMK A01 T00730011  RH  065%=      5-min Rain = 0
KCR1 191232Z 35003KT 07/01 A2995 RMK A01 T00730011  RH  065%=      5-min Rain = 0
KCR1 191233Z 35004KT 07/01 A2995 RMK A01 T00730011  RH  065%=      5-min Rain = 0
KCR1 191234Z 35003KT 07/01 A2995 RMK A01 T00730012  RH  065%=      5-min Rain = 0
KCR1 191235Z 35004KT 07/01 A2995 RMK A01 T00720012  RH  065%=      5-min Rain = 0
KCR1 191236Z 35004KT 07/01 A2995 RMK A01 T00710011  RH  066%=      5-min Rain = 0
KCR1 191237Z 35005KT 07/01 A2995 RMK A01 T00700011  RH  066%=      5-min Rain = 0
KCR1 191238Z 36004KT 07/01 A2995 RMK A01 T00690011  RH  066%=      5-min Rain = 0
KCR1 191239Z 00004KT 07/01 A2995 RMK A01 T00680010  RH  066%=      5-min Rain = 0
KCR1 191240Z 36004KT 07/01 A2995 RMK A01 T00680011  RH  067%=      5-min Rain = 0
KCR1 191241Z 35005KT 07/01 A2995 RMK A01 T00670011  RH  067%=      5-min Rain = 0
KCR1 191242Z 35005KT 07/01 A2995 RMK A01 T00660011  RH  068%=      5-min Rain = 0
KCR1 191243Z 35005KT 07/01 A2995 RMK A01 T00660011  RH  068%=      5-min Rain = 0
KCR1 191244Z 35005KT 07/01 A2995 RMK A01 T00660011  RH  068%=      5-min Rain = 0
KCR1 191245Z 35005KT 07/01 A2995 RMK A01 T00650010  RH  068%=      5-min Rain = 0
KCR1 191246Z 34005KT 07/01 A2995 RMK A01 T00650010  RH  068%=      5-min Rain = 0
KCR1 191247Z 34005KT 07/01 A2995 RMK A01 T00650009  RH  068%=      5-min Rain = 0
KCR1 191248Z 34005KT 07/01 A2996 RMK A01 T00650010  RH  068%=      5-min Rain = 0
KCR1 191249Z 35005KT 07/01 A2996 RMK A01 T00650010  RH  068%=      5-min Rain = 0
KCR1 191250Z 35005KT 06/01 A2996 RMK A01 T00640010  RH  068%=      5-min Rain = 0
KCR1 191251Z 00005KT 06/01 A2996 RMK A01 T00640009  RH  068%=      5-min Rain = 0
KCR1 191252Z 36005KT 06/01 A2996 RMK A01 T00640009  RH  068%=      5-min Rain = 0
KCR1 191253Z 35005KT 06/01 A2996 RMK A01 T00630009  RH  068%=      5-min Rain = 0
KCR1 191254Z 35005KT 06/01 A2996 RMK A01 T00620009  RH  069%=      5-min Rain = 0
KCR1 191255Z 34005KT 06/01 A2996 RMK A01 T00620009  RH  069%=      5-min Rain = 0
KCR1 191256Z 34004KT 06/01 A2996 RMK A01 T00630009  RH  068%=      5-min Rain = 0
KCR1 191257Z 34004KT 06/01 A2996 RMK A01 T00640009  RH  068%=      5-min Rain = 0
KCR1 191258Z 34004KT 06/01 A2996 RMK A01 T00640009  RH  068%=      5-min Rain = 0
KCR1 191259Z 34004KT 06/01 A2996 RMK A01 T00640009  RH  068%=      5-min Rain = 0
KCR1 191300Z 34005KT 06/01 A2996 RMK A01 T00640009  RH  068%=      5-min Rain = 0
KCR1 191301Z 34005KT 06/01 A2996 RMK A01 T00640009  RH  068%=      5-min Rain = 0
KCR1 191302Z 33005KT 06/01 A2996 RMK A01 T00640009  RH  068%=      5-min Rain = 0
KCR1 191303Z 33004KT 06/01 A2996 RMK A01 T00640009  RH  068%=      5-min Rain = 0
KCR1 191304Z 33004KT 06/01 A2996 RMK A01 T00630009  RH  068%=      5-min Rain = 0
KCR1 191305Z 32003KT 06/01 A2996 RMK A01 T00630009  RH  068%=      5-min Rain = 0
KCR1 191306Z 31003KT 06/01 A2996 RMK A01 T00630010  RH  069%=      5-min Rain = 0
KCR1 191307Z 31003KT 06/01 A2996 RMK A01 T00630010  RH  069%=      5-min Rain = 0
KCR1 191308Z 32004KT 06/01 A2996 RMK A01 T00630009  RH  069%=      5-min Rain = 0
KCR1 191309Z 32004KT 06/01 A2996 RMK A01 T00630010  RH  069%=      5-min Rain = 0
KCR1 191310Z 32004KT 07/01 A2996 RMK A01 T00650010  RH  068%=      5-min Rain = 0
KCR1 191311Z 33004KT 07/01 A2996 RMK A01 T00650010  RH  068%=      5-min Rain = 0
KCR1 191312Z 33005KT 07/01 A2996 RMK A01 T00660010  RH  067%=      5-min Rain = 0
KCR1 191313Z 33005KT 07/01 A2996 RMK A01 T00660010  RH  067%=      5-min Rain = 0
KCR1 191314Z 33005KT 07/01 A2996 RMK A01 T00660010  RH  068%=      5-min Rain = 0
KCR1 191315Z 33006KT 07/01 A2996 RMK A01 T00650010  RH  068%=      5-min Rain = 0
KCR1 191316Z 33006KT 06/01 A2996 RMK A01 T00640009  RH  068%=      5-min Rain = 0
KCR1 191317Z 34006KT 06/01 A2996 RMK A01 T00640009  RH  068%=      5-min Rain = 0
KCR1 191318Z 33006KT 06/01 A2996 RMK A01 T00630009  RH  069%=      5-min Rain = 0
KCR1 191319Z 33006KT 06/01 A2996 RMK A01 T00620010  RH  069%=      5-min Rain = 0
KCR1 191320Z 33006KT 06/01 A2996 RMK A01 T00620010  RH  069%=      5-min Rain = 0
KCR1 191321Z 33006KT 06/01 A2996 RMK A01 T00620009  RH  069%=      5-min Rain = 0
KCR1 191322Z 33006KT 06/01 A2996 RMK A01 T00620010  RH  069%=      5-min Rain = 0
KCR1 191323Z 33006KT 06/01 A2996 RMK A01 T00610009  RH  069%=      5-min Rain = 0
KCR1 191324Z 32005KT 06/01 A2996 RMK A01 T00610010  RH  069%=      5-min Rain = 0
KCR1 191325Z 32005KT 06/01 A2996 RMK A01 T00610010  RH  070%=      5-min Rain = 0
KCR1 191326Z 32005KT 06/01 A2996 RMK A01 T00620010  RH  070%=      5-min Rain = 0
KCR1 191327Z 33005KT 06/01 A2996 RMK A01 T00630010  RH  069%=      5-min Rain = 0
KCR1 191328Z 33005KT 06/01 A2996 RMK A01 T00640010  RH  069%=      5-min Rain = 0
KCR1 191329Z 33005KT 07/01 A2996 RMK A01 T00650010  RH  068%=      5-min Rain = 0
KCR1 191330Z 32005KT 07/01 A2996 RMK A01 T00660010  RH  068%=      5-min Rain = 0
KCR1 191331Z 33006KT 07/01 A2996 RMK A01 T00660011  RH  068%=      5-min Rain = 0
KCR1 191332Z 33006KT 07/01 A2996 RMK A01 T00670011  RH  067%=      5-min Rain = 0
KCR1 191333Z 33006KT 07/01 A2996 RMK A01 T00680011  RH  067%=      5-min Rain = 0
KCR1 191334Z 33006KT 07/01 A2996 RMK A01 T00690011  RH  067%=      5-min Rain = 0
KCR1 191335Z 33006KT 07/01 A2996 RMK A01 T00690010  RH  066%=      5-min Rain = 0
KCR1 191336Z 33006KT 07/01 A2996 RMK A01 T00690010  RH  066%=      5-min Rain = 0
KCR1 191337Z 34006KT 07/01 A2996 RMK A01 T00690010  RH  066%=      5-min Rain = 0
KCR1 191338Z 34006KT 07/01 A2996 RMK A01 T00700010  RH  066%=      5-min Rain = 0
KCR1 191339Z 34006KT 07/01 A2995 RMK A01 T00700010  RH  066%=      5-min Rain = 0
KCR1 191340Z 34006KT 07/01 A2995 RMK A01 T00700010  RH  066%=      5-min Rain = 0
KCR1 191341Z 34006KT 07/01 A2995 RMK A01 T00710010  RH  065%=      5-min Rain = 0
KCR1 191342Z 34006KT 07/01 A2995 RMK A01 T00710011  RH  065%=      5-min Rain = 0
KCR1 191343Z 34006KT 07/01 A2995 RMK A01 T00720011  RH  065%=      5-min Rain = 0
KCR1 191344Z 34006KT 07/01 A2995 RMK A01 T00720010  RH  065%=      5-min Rain = 0
KCR1 191345Z 34007KT 07/01 A2995 RMK A01 T00730011  RH  065%=      5-min Rain = 0
KCR1 191346Z 34007KT 07/01 A2995 RMK A01 T00730011  RH  065%=      5-min Rain = 0
KCR1 191347Z 34007KT 07/01 A2995 RMK A01 T00730011  RH  065%=      5-min Rain = 0
KCR1 191348Z 34007KT 07/01 A2995 RMK A01 T00730011  RH  065%=      5-min Rain = 0
KCR1 191349Z 34007KT 07/01 A2995 RMK A01 T00730011  RH  065%=      5-min Rain = 0
KCR1 191350Z 34007KT 07/01 A2995 RMK A01 T00730012  RH  065%=      5-min Rain = 0
KCR1 191351Z 34007KT 07/01 A2995 RMK A01 T00730011  RH  065%=      5-min Rain = 0
KCR1 191352Z 33007KT 07/01 A2995 RMK A01 T00730012  RH  065%=      5-min Rain = 0
KCR1 191353Z 33006KT 07/01 A2995 RMK A01 T00730012  RH  065%=      5-min Rain = 0
KCR1 191354Z 33005KT 07/01 A2995 RMK A01 T00730012  RH  065%=      5-min Rain = 0
KCR1 191355Z 32005KT 07/01 A2995 RMK A01 T00740013  RH  065%=      5-min Rain = 0
KCR1 191356Z 32004KT 08/01 A2995 RMK A01 T00760014  RH  065%=      5-min Rain = 0
KCR1 191357Z 32003KT 08/01 A2995 RMK A01 T00780014  RH  064%=      5-min Rain = 0
KCR1 191358Z 32004KT 08/01 A2995 RMK A01 T00790014  RH  063%=      5-min Rain = 0
KCR1 191359Z 32004KT 08/01 A2995 RMK A01 T00810014  RH  063%=      5-min Rain = 0
KCR1 191400Z 33004KT 08/01 A2995 RMK A01 T00830014  RH  062%=      5-min Rain = 0
KCR1 191401Z 33004KT 08/02 A2995 RMK A01 T00840015  RH  062%=      5-min Rain = 0
KCR1 191402Z 34004KT 09/02 A2995 RMK A01 T00850015  RH  062%=      5-min Rain = 0
KCR1 191403Z 34005KT 09/02 A2995 RMK A01 T00860015  RH  061%=      5-min Rain = 0
KCR1 191404Z 34005KT 09/02 A2995 RMK A01 T00870015  RH  061%=      5-min Rain = 0
KCR1 191405Z 34006KT 09/02 A2995 RMK A01 T00880015  RH  061%=      5-min Rain = 0
KCR1 191406Z 34006KT 09/02 A2995 RMK A01 T00880016  RH  061%=      5-min Rain = 0
KCR1 191407Z 35005KT 09/02 A2995 RMK A01 T00880016  RH  060%=      5-min Rain = 0
KCR1 191408Z 34005KT 09/02 A2995 RMK A01 T00890017  RH  061%=      5-min Rain = 0
KCR1 191409Z 34005KT 09/02 A2995 RMK A01 T00900018  RH  061%=      5-min Rain = 0
KCR1 191410Z 34004KT 09/02 A2995 RMK A01 T00900018  RH  061%=      5-min Rain = 0
KCR1 191411Z 34003KT 09/02 A2995 RMK A01 T00910019  RH  061%=      5-min Rain = 0
KCR1 191412Z 33003KT 09/02 A2995 RMK A01 T00920019  RH  060%=      5-min Rain = 0
KCR1 191413Z 32003KT 09/02 A2995 RMK A01 T00930020  RH  060%=      5-min Rain = 0
KCR1 191414Z 31002KT 09/02 A2995 RMK A01 T00940019  RH  060%=      5-min Rain = 0
KCR1 191415Z 31002KT 10/02 A2995 RMK A01 T00950021  RH  060%=      5-min Rain = 0
KCR1 191416Z 30002KT 10/02 A2994 RMK A01 T00970023  RH  060%=      5-min Rain = 0
KCR1 191417Z 30001KT 10/02 A2994 RMK A01 T00990024  RH  060%=      5-min Rain = 0
KCR1 191418Z 28000KT 10/03 A2994 RMK A01 T01010025  RH  059%=      5-min Rain = 0
KCR1 191419Z 27000KT 10/03 A2994 RMK A01 T01040025  RH  058%=      5-min Rain = 0
KCR1 191420Z 00000KT 11/03 A2994 RMK A01 T01070026  RH  057%=      5-min Rain = 0
KCR1 191421Z 00000KT 11/02 A2995 RMK A01 T01100022  RH  055%=      5-min Rain = 0
KCR1 191422Z 00000KT 11/02 A2995 RMK A01 T01110022  RH  054%=      5-min Rain = 0
KCR1 191423Z 00000KT 11/02 A2995 RMK A01 T01130023  RH  054%=      5-min Rain = 0
KCR1 191424Z 00000KT 12/02 A2995 RMK A01 T01150022  RH  053%=      5-min Rain = 0
KCR1 191425Z 00000KT 12/02 A2995 RMK A01 T01160021  RH  052%=      5-min Rain = 0
KCR1 191426Z 09000KT 12/03 A2995 RMK A01 T01160026  RH  054%=      5-min Rain = 0
KCR1 191427Z 09001KT 11/03 A2995 RMK A01 T01140027  RH  055%=      5-min Rain = 0
KCR1 191428Z 16001KT 11/03 A2995 RMK A01 T01130027  RH  055%=      5-min Rain = 0
KCR1 191429Z 18001KT 11/03 A2995 RMK A01 T01120028  RH  056%=      5-min Rain = 0
KCR1 191430Z 19001KT 11/03 A2995 RMK A01 T01110029  RH  057%=      5-min Rain = 0
KCR1 191431Z 20001KT 11/03 A2995 RMK A01 T01100029  RH  057%=      5-min Rain = 0
KCR1 191432Z 18001KT 11/03 A2995 RMK A01 T01090031  RH  059%=      5-min Rain = 0
KCR1 191433Z 15001KT 11/03 A2995 RMK A01 T01090032  RH  059%=      5-min Rain = 0
KCR1 191434Z 15001KT 11/03 A2995 RMK A01 T01090030  RH  058%=      5-min Rain = 0
KCR1 191435Z 15000KT 11/03 A2995 RMK A01 T01090030  RH  058%=      5-min Rain = 0
KCR1 191436Z 14000KT 11/03 A2995 RMK A01 T01100031  RH  058%=      5-min Rain = 0
KCR1 191437Z 00000KT 11/03 A2995 RMK A01 T01110031  RH  058%=      5-min Rain = 0
KCR1 191438Z 00000KT 11/03 A2995 RMK A01 T01110032  RH  058%=      5-min Rain = 0
KCR1 191439Z 00000KT 11/03 A2995 RMK A01 T01130034  RH  058%=      5-min Rain = 0
KCR1 191440Z 00000KT 12/03 A2995 RMK A01 T01150034  RH  058%=      5-min Rain = 0
KCR1 191441Z 17000KT 12/03 A2995 RMK A01 T01160034  RH  057%=      5-min Rain = 0
KCR1 191442Z 19001KT 12/03 A2995 RMK A01 T01170034  RH  057%=      5-min Rain = 0
KCR1 191443Z 17001KT 12/03 A2995 RMK A01 T01180034  RH  056%=      5-min Rain = 0
KCR1 191444Z 18001KT 12/03 A2995 RMK A01 T01180034  RH  056%=      5-min Rain = 0
KCR1 191445Z 11000KT 12/03 A2995 RMK A01 T01180034  RH  056%=      5-min Rain = 0
KCR1 191446Z 10001KT 12/03 A2995 RMK A01 T01190034  RH  056%=      5-min Rain = 0
KCR1 191447Z 06000KT 12/03 A2995 RMK A01 T01210031  RH  054%=      5-min Rain = 0
KCR1 191448Z 04001KT 12/03 A2995 RMK A01 T01240032  RH  053%=      5-min Rain = 0
KCR1 191449Z 06002KT 13/03 A2995 RMK A01 T01250027  RH  051%=      5-min Rain = 0
KCR1 191450Z 05002KT 13/03 A2995 RMK A01 T01250025  RH  051%=      5-min Rain = 0
KCR1 191451Z 05002KT 12/03 A2995 RMK A01 T01240027  RH  051%=      5-min Rain = 0
KCR1 191452Z 05002KT 12/03 A2995 RMK A01 T01240028  RH  052%=      5-min Rain = 0
KCR1 191453Z 05001KT 13/03 A2995 RMK A01 T01250028  RH  051%=      5-min Rain = 0
KCR1 191454Z 05001KT 13/03 A2995 RMK A01 T01270031  RH  052%=      5-min Rain = 0
KCR1 191455Z 06001KT 13/03 A2995 RMK A01 T01270031  RH  052%=      5-min Rain = 0
KCR1 191456Z 08001KT 13/03 A2995 RMK A01 T01280030  RH  051%=      5-min Rain = 0
KCR1 191457Z 07002KT 13/03 A2995 RMK A01 T01280030  RH  051%=      5-min Rain = 0
KCR1 191458Z 07001KT 13/03 A2995 RMK A01 T01280031  RH  051%=      5-min Rain = 0
KCR1 191459Z 08001KT 13/03 A2995 RMK A01 T01290031  RH  051%=      5-min Rain = 0
KCR1 191500Z 09002KT 13/03 A2995 RMK A01 T01300031  RH  051%=      5-min Rain = 0
KCR1 191501Z 11001KT 13/03 A2995 RMK A01 T01310030  RH  051%=      5-min Rain = 0
KCR1 191502Z 10001KT 13/03 A2995 RMK A01 T01330032  RH  050%=      5-min Rain = 0
KCR1 191503Z 11002KT 14/03 A2995 RMK A01 T01350032  RH  050%=      5-min Rain = 0
KCR1 191504Z 11002KT 14/03 A2995 RMK A01 T01370033  RH  049%=      5-min Rain = 0
KCR1 191505Z 10002KT 14/03 A2995 RMK A01 T01380031  RH  049%=      5-min Rain = 0
KCR1 191506Z 12002KT 14/03 A2995 RMK A01 T01380031  RH  048%=      5-min Rain = 0
KCR1 191507Z 11002KT 14/03 A2995 RMK A01 T01380032  RH  049%=      5-min Rain = 0
KCR1 191508Z 11002KT 14/03 A2995 RMK A01 T01380031  RH  048%=      5-min Rain = 0
KCR1 191509Z 13004KT 14/03 A2995 RMK A01 T01390033  RH  049%=      5-min Rain = 0
KCR1 191510Z 12004KT 14/03 A2995 RMK A01 T01390032  RH  048%=      5-min Rain = 0
KCR1 191511Z 12003KT 14/03 A2995 RMK A01 T01390032  RH  048%=      5-min Rain = 0
KCR1 191512Z 12003KT 14/03 A2995 RMK A01 T01380032  RH  049%=      5-min Rain = 0
KCR1 191513Z 12004KT 14/03 A2995 RMK A01 T01380033  RH  049%=      5-min Rain = 0
KCR1 191514Z 13003KT 14/03 A2995 RMK A01 T01380034  RH  049%=      5-min Rain = 0
KCR1 191515Z 12003KT 14/04 A2995 RMK A01 T01370035  RH  050%=      5-min Rain = 0
KCR1 191516Z 13004KT 14/04 A2995 RMK A01 T01390036  RH  050%=      5-min Rain = 0
KCR1 191517Z 13004KT 14/04 A2995 RMK A01 T01380036  RH  050%=      5-min Rain = 0
KCR1 191518Z 12003KT 14/04 A2995 RMK A01 T01380036  RH  050%=      5-min Rain = 0
KCR1 191519Z 13003KT 14/04 A2995 RMK A01 T01380037  RH  050%=      5-min Rain = 0
KCR1 191520Z 13003KT 14/04 A2995 RMK A01 T01380037  RH  050%=      5-min Rain = 0
KCR1 191521Z 13003KT 14/04 A2995 RMK A01 T01380037  RH  050%=      5-min Rain = 0
KCR1 191522Z 14004KT 14/04 A2995 RMK A01 T01390037  RH  050%=      5-min Rain = 0
KCR1 191523Z 14005KT 14/04 A2995 RMK A01 T01390037  RH  050%=      5-min Rain = 0
KCR1 191524Z 12004KT 14/04 A2995 RMK A01 T01390037  RH  050%=      5-min Rain = 0
KCR1 191525Z 12004KT 14/04 A2995 RMK A01 T01400037  RH  050%=      5-min Rain = 0
KCR1 191526Z 14004KT 14/04 A2995 RMK A01 T01390036  RH  050%=      5-min Rain = 0
KCR1 191527Z 15004KT 14/04 A2995 RMK A01 T01390038  RH  051%=      5-min Rain = 0
KCR1 191528Z 14004KT 14/04 A2995 RMK A01 T01410039  RH  050%=      5-min Rain = 0
KCR1 191529Z 13004KT 14/04 A2995 RMK A01 T01410037  RH  049%=      5-min Rain = 0
KCR1 191530Z 14004KT 14/04 A2995 RMK A01 T01410039  RH  050%=      5-min Rain = 0
KCR1 191531Z 14005KT 14/04 A2995 RMK A01 T01410037  RH  049%=      5-min Rain = 0
KCR1 191532Z 14006KT 14/04 A2996 RMK A01 T01410038  RH  050%=      5-min Rain = 0
KCR1 191533Z 16005KT 14/04 A2996 RMK A01 T01410037  RH  050%=      5-min Rain = 0
KCR1 191534Z 16005KT 14/04 A2996 RMK A01 T01400039  RH  050%=      5-min Rain = 0
KCR1 191535Z 17005KT 14/04 A2996 RMK A01 T01400040  RH  051%=      5-min Rain = 0
KCR1 191536Z 16006KT 14/04 A2996 RMK A01 T01420044  RH  052%=      5-min Rain = 0
KCR1 191537Z 17006KT 15/04 A2996 RMK A01 T01450042  RH  050%=      5-min Rain = 0
KCR1 191538Z 17005KT 15/04 A2996 RMK A01 T01460040  RH  049%=      5-min Rain = 0
KCR1 191539Z 17005KT 15/04 A2996 RMK A01 T01450040  RH  049%=      5-min Rain = 0
KCR1 191540Z 16006KT 15/04 A2996 RMK A01 T01460039  RH  049%=      5-min Rain = 0
KCR1 191541Z 16006KT 15/04 A2996 RMK A01 T01450038  RH  048%=      5-min Rain = 0
KCR1 191542Z 17006KT 15/04 A2996 RMK A01 T01460038  RH  048%=      5-min Rain = 0
KCR1 191543Z 17006KT 15/04 A2996 RMK A01 T01460038  RH  048%=      5-min Rain = 0
KCR1 191544Z 15006KT 15/04 A2996 RMK A01 T01480040  RH  048%=      5-min Rain = 0
KCR1 191545Z 17007KT 15/04 A2996 RMK A01 T01500040  RH  048%=      5-min Rain = 0
KCR1 191546Z 16007KT 15/04 A2996 RMK A01 T01510038  RH  047%=      5-min Rain = 0
KCR1 191547Z 16008KT 15/04 A2996 RMK A01 T01520037  RH  046%=      5-min Rain = 0
KCR1 191548Z 16007KT 15/04 A2996 RMK A01 T01520036  RH  046%=      5-min Rain = 0
KCR1 191549Z 17007KT 15/04 A2996 RMK A01 T01530038  RH  046%=      5-min Rain = 0
KCR1 191550Z 16006KT 16/04 A2996 RMK A01 T01560041  RH  046%=      5-min Rain = 0
KCR1 191551Z 17008KT 16/04 A2996 RMK A01 T01570040  RH  046%=      5-min Rain = 0
KCR1 191552Z 18009KT 16/04 A2996 RMK A01 T01570041  RH  046%=      5-min Rain = 0
KCR1 191553Z 17008KT 16/04 A2996 RMK A01 T01560040  RH  046%=      5-min Rain = 0
KCR1 191554Z 18008KT 16/04 A2996 RMK A01 T01550039  RH  046%=      5-min Rain = 0
KCR1 191555Z 18009KT 16/04 A2996 RMK A01 T01550039  RH  046%=      5-min Rain = 0
KCR1 191556Z 18007KT 16/04 A2996 RMK A01 T01550038  RH  046%=      5-min Rain = 0
KCR1 191557Z 17007KT 16/04 A2996 RMK A01 T01560042  RH  047%=      5-min Rain = 0
KCR1 191558Z 17009KT 16/04 A2996 RMK A01 T01580041  RH  046%=      5-min Rain = 0
KCR1 191559Z 16008KT 16/04 A2996 RMK A01 T01580041  RH  046%=      5-min Rain = 0
KCR1 191600Z 17008KT 16/04 A2996 RMK A01 T01580041  RH  046%=      5-min Rain = 0
KCR1 191601Z 17007KT 16/04 A2996 RMK A01 T01590042  RH  045%=      5-min Rain = 0
KCR1 191602Z 17009KT 16/04 A2996 RMK A01 T01610041  RH  045%=      5-min Rain = 0
KCR1 191603Z 17008KT 16/04 A2996 RMK A01 T01610040  RH  044%=      5-min Rain = 0
KCR1 191604Z 17009KT 16/04 A2996 RMK A01 T01630040  RH  044%=      5-min Rain = 0
KCR1 191605Z 17008KT 16/04 A2996 RMK A01 T01630039  RH  044%=      5-min Rain = 0
KCR1 191606Z 17008KT 16/04 A2996 RMK A01 T01630039  RH  044%=      5-min Rain = 0
KCR1 191607Z 17007KT 16/04 A2996 RMK A01 T01640040  RH  044%=      5-min Rain = 0
KCR1 191608Z 17007KT 17/04 A2996 RMK A01 T01660038  RH  042%=      5-min Rain = 0
KCR1 191609Z 19008KT 17/04 A2996 RMK A01 T01650038  RH  042%=      5-min Rain = 0
KCR1 191610Z 19009KT 17/04 A2996 RMK A01 T01660039  RH  043%=      5-min Rain = 0
KCR1 191611Z 17008KT 16/04 A2996 RMK A01 T01640038  RH  043%=      5-min Rain = 0
KCR1 191612Z 18008KT 16/04 A2996 RMK A01 T01630037  RH  043%=      5-min Rain = 0
KCR1 191613Z 17008KT 16/04 A2996 RMK A01 T01630037  RH  043%=      5-min Rain = 0
KCR1 191614Z 16008KT 17/04 A2996 RMK A01 T01650036  RH  042%=      5-min Rain = 0
KCR1 191615Z 17007KT 17/04 A2996 RMK A01 T01650037  RH  042%=      5-min Rain = 0
KCR1 191616Z 17007KT 17/04 A2996 RMK A01 T01660039  RH  043%=      5-min Rain = 0
KCR1 191617Z 18007KT 17/04 A2996 RMK A01 T01670039  RH  042%=      5-min Rain = 0
KCR1 191618Z 20008KT 17/04 A2996 RMK A01 T01670040  RH  043%=      5-min Rain = 0
KCR1 191619Z 19009KT 17/04 A2996 RMK A01 T01660040  RH  043%=      5-min Rain = 0
KCR1 191620Z 19008KT 17/04 A2996 RMK A01 T01650041  RH  044%=      5-min Rain = 0
KCR1 191621Z 19008KT 17/04 A2996 RMK A01 T01660042  RH  044%=      5-min Rain = 0
KCR1 191622Z 19008KT 17/04 A2996 RMK A01 T01680041  RH  043%=      5-min Rain = 0
KCR1 191623Z 19008KT 17/04 A2996 RMK A01 T01690041  RH  043%=      5-min Rain = 0
KCR1 191624Z 18007KT 17/04 A2996 RMK A01 T01690042  RH  043%=      5-min Rain = 0
KCR1 191625Z 18008KT 17/04 A2996 RMK A01 T01690043  RH  043%=      5-min Rain = 0
KCR1 191626Z 19009KT 17/04 A2996 RMK A01 T01700044  RH  043%=      5-min Rain = 0
KCR1 191627Z 18009KT 17/05 A2996 RMK A01 T01690045  RH  044%=      5-min Rain = 0
KCR1 191628Z 18010KT 17/05 A2996 RMK A01 T01690046  RH  044%=      5-min Rain = 0
KCR1 191629Z 17009KT 17/05 A2996 RMK A01 T01690045  RH  044%=      5-min Rain = 0
KCR1 191630Z 18008KT 17/05 A2996 RMK A01 T01680045  RH  044%=      5-min Rain = 0
KCR1 191631Z 18008KT 17/05 A2996 RMK A01 T01690046  RH  044%=      5-min Rain = 0
KCR1 191632Z 19008KT 17/05 A2996 RMK A01 T01710048  RH  044%=      5-min Rain = 0
KCR1 191633Z 19009KT 17/05 A2996 RMK A01 T01710048  RH  044%=      5-min Rain = 0
KCR1 191634Z 20008KT 17/05 A2996 RMK A01 T01710049  RH  044%=      5-min Rain = 0
KCR1 191635Z 21009KT 17/05 A2996 RMK A01 T01710048  RH  044%=      5-min Rain = 0
KCR1 191636Z 21008KT 17/05 A2996 RMK A01 T01700047  RH  044%=      5-min Rain = 0
KCR1 191637Z 19009KT 17/05 A2996 RMK A01 T01700048  RH  044%=      5-min Rain = 0
KCR1 191638Z 20009KT 17/05 A2996 RMK A01 T01700047  RH  044%=      5-min Rain = 0
KCR1 191639Z 20010KT 17/05 A2996 RMK A01 T01700047  RH  044%=      5-min Rain = 0
KCR1 191640Z 20010KT 17/05 A2996 RMK A01 T01690047  RH  044%=      5-min Rain = 0
KCR1 191641Z 20010KT 17/04 A2996 RMK A01 T01680044  RH  044%=      5-min Rain = 0
KCR1 191642Z 19010KT 17/04 A2996 RMK A01 T01680044  RH  044%=      5-min Rain = 0
KCR1 191643Z 20009KT 17/05 A2996 RMK A01 T01680045  RH  044%=      5-min Rain = 0
KCR1 191644Z 19009KT 17/04 A2996 RMK A01 T01690044  RH  043%=      5-min Rain = 0
KCR1 191645Z 20009KT 17/04 A2996 RMK A01 T01700044  RH  043%=      5-min Rain = 0
KCR1 191646Z 19009KT 17/05 A2996 RMK A01 T01720046  RH  043%=      5-min Rain = 0
KCR1 191647Z 20008KT 17/04 A2996 RMK A01 T01720044  RH  042%=      5-min Rain = 0
KCR1 191648Z 19010KT 17/05 A2996 RMK A01 T01730045  RH  043%=      5-min Rain = 0
KCR1 191649Z 19009KT 17/04 A2996 RMK A01 T01740042  RH  042%=      5-min Rain = 0
KCR1 191650Z 18010KT 17/04 A2996 RMK A01 T01730043  RH  042%=      5-min Rain = 0
KCR1 191651Z 19010KT 17/04 A2996 RMK A01 T01720042  RH  042%=      5-min Rain = 0
KCR1 191652Z 19010KT 17/04 A2996 RMK A01 T01710040  RH  042%=      5-min Rain = 0
KCR1 191653Z 19010KT 17/04 A2996 RMK A01 T01710041  RH  042%=      5-min Rain = 0
KCR1 191654Z 20010KT 17/04 A2996 RMK A01 T01720041  RH  042%=      5-min Rain = 0
KCR1 191655Z 19009KT 17/04 A2996 RMK A01 T01720041  RH  042%=      5-min Rain = 0
KCR1 191656Z 19011KT 17/04 A2996 RMK A01 T01740042  RH  042%=      5-min Rain = 0
KCR1 191657Z 18009KT 17/04 A2996 RMK A01 T01740042  RH  041%=      5-min Rain = 0
KCR1 191658Z 17008KT 18/04 A2996 RMK A01 T01750042  RH  041%=      5-min Rain = 0
KCR1 191659Z 18007KT 18/04 A2996 RMK A01 T01760044  RH  042%=      5-min Rain = 0
KCR1 191700Z 19009KT 18/05 A2996 RMK A01 T01790048  RH  042%=      5-min Rain = 0
KCR1 191701Z 18008KT 18/05 A2996 RMK A01 T01820045  RH  040%=      5-min Rain = 0
KCR1 191702Z 18008KT 18/04 A2996 RMK A01 T01820044  RH  040%=      5-min Rain = 0
KCR1 191703Z 19008KT 18/04 A2996 RMK A01 T01810044  RH  040%=      5-min Rain = 0
KCR1 191704Z 19010KT 18/04 A2996 RMK A01 T01810044  RH  040%=      5-min Rain = 0
KCR1 191705Z 18008KT 18/04 A2996 RMK A01 T01810044  RH  040%=      5-min Rain = 0
KCR1 191706Z 18008KT 18/05 A2996 RMK A01 T01820045  RH  040%=      5-min Rain = 0
KCR1 191707Z 17006KT 18/05 A2996 RMK A01 T01840047  RH  040%=      5-min Rain = 0
KCR1 191708Z 17010KT 19/05 A2996 RMK A01 T01850047  RH  040%=      5-min Rain = 0
KCR1 191709Z 17010KT 19/05 A2996 RMK A01 T01860045  RH  039%=      5-min Rain = 0
KCR1 191710Z 17008KT 19/05 A2996 RMK A01 T01860045  RH  039%=      5-min Rain = 0
KCR1 191711Z 17008KT 19/05 A2996 RMK A01 T01880047  RH  039%=      5-min Rain = 0
KCR1 191712Z 18007KT 19/05 A2996 RMK A01 T01880046  RH  039%=      5-min Rain = 0
KCR1 191713Z 17007KT 19/05 A2995 RMK A01 T01890046  RH  039%=      5-min Rain = 0
KCR1 191714Z 16010KT 19/05 A2995 RMK A01 T01900047  RH  039%=      5-min Rain = 0
KCR1 191715Z 16008KT 19/05 A2995 RMK A01 T01910045  RH  038%=      5-min Rain = 0
KCR1 191716Z 17009KT 19/05 A2995 RMK A01 T01920047  RH  038%=      5-min Rain = 0
KCR1 191717Z 17008KT 19/05 A2995 RMK A01 T01930045  RH  038%=      5-min Rain = 0
KCR1 191718Z 17008KT 20/05 A2995 RMK A01 T01950047  RH  038%=      5-min Rain = 0
KCR1 191719Z 16008KT 20/05 A2995 RMK A01 T01960046  RH  037%=      5-min Rain = 0
KCR1 191720Z 16009KT 20/05 A2995 RMK A01 T01960046  RH  037%=      5-min Rain = 0
KCR1 191721Z 16007KT 20/04 A2995 RMK A01 T01960044  RH  037%=      5-min Rain = 0
KCR1 191722Z 17007KT 20/05 A2995 RMK A01 T01960046  RH  037%=      5-min Rain = 0
KCR1 191723Z 15007KT 20/05 A2995 RMK A01 T01970045  RH  037%=      5-min Rain = 0
KCR1 191724Z 16008KT 20/05 A2995 RMK A01 T01980046  RH  037%=      5-min Rain = 0
KCR1 191725Z 16007KT 20/05 A2995 RMK A01 T01990045  RH  036%=      5-min Rain = 0
KCR1 191726Z 17007KT 20/05 A2994 RMK A01 T02000046  RH  036%=      5-min Rain = 0
KCR1 191727Z 16009KT 20/05 A2994 RMK A01 T02030047  RH  036%=      5-min Rain = 0
KCR1 191728Z 16009KT 20/05 A2994 RMK A01 T02040046  RH  035%=      5-min Rain = 0
KCR1 191729Z 17007KT 20/05 A2994 RMK A01 T02040045  RH  035%=      5-min Rain = 0
KCR1 191730Z 17006KT 20/05 A2994 RMK A01 T02030047  RH  036%=      5-min Rain = 0
KCR1 191731Z 15007KT 20/05 A2994 RMK A01 T02040047  RH  036%=      5-min Rain = 0
KCR1 191732Z 15005KT 20/05 A2994 RMK A01 T02040046  RH  035%=      5-min Rain = 0
KCR1 191733Z 16005KT 20/05 A2994 RMK A01 T02040048  RH  036%=      5-min Rain = 0
KCR1 191734Z 14005KT 21/05 A2994 RMK A01 T02060049  RH  036%=      5-min Rain = 0
KCR1 191735Z 15005KT 21/05 A2994 RMK A01 T02080051  RH  036%=      5-min Rain = 0
KCR1 191736Z 14006KT 21/05 A2994 RMK A01 T02100049  RH  035%=      5-min Rain = 0
KCR1 191737Z 16005KT 21/05 A2994 RMK A01 T02090045  RH  034%=      5-min Rain = 0
KCR1 191738Z 14007KT 21/04 A2994 RMK A01 T02060044  RH  034%=      5-min Rain = 0
KCR1 191739Z 14006KT 21/05 A2994 RMK A01 T02060046  RH  035%=      5-min Rain = 0
KCR1 191740Z 16006KT 21/05 A2994 RMK A01 T02080046  RH  035%=      5-min Rain = 0
KCR1 191741Z 18007KT 21/05 A2994 RMK A01 T02100046  RH  034%=      5-min Rain = 0
KCR1 191742Z 17007KT 21/05 A2994 RMK A01 T02110045  RH  034%=      5-min Rain = 0
KCR1 191743Z 17007KT 21/05 A2994 RMK A01 T02110045  RH  034%=      5-min Rain = 0
KCR1 191744Z 18007KT 21/05 A2994 RMK A01 T02100046  RH  034%=      5-min Rain = 0
KCR1 191745Z 15006KT 21/05 A2994 RMK A01 T02110047  RH  034%=      5-min Rain = 0
KCR1 191746Z 18005KT 21/05 A2994 RMK A01 T02120045  RH  034%=      5-min Rain = 0
KCR1 191747Z 16006KT 21/05 A2993 RMK A01 T02120046  RH  034%=      5-min Rain = 0
KCR1 191748Z 17006KT 21/05 A2993 RMK A01 T02130048  RH  034%=      5-min Rain = 0
KCR1 191749Z 17006KT 22/05 A2993 RMK A01 T02150046  RH  033%=      5-min Rain = 0
KCR1 191750Z 16006KT 22/05 A2993 RMK A01 T02150047  RH  033%=      5-min Rain = 0
KCR1 191751Z 15008KT 22/05 A2993 RMK A01 T02160049  RH  034%=      5-min Rain = 0
KCR1 191752Z 16007KT 22/05 A2993 RMK A01 T02170048  RH  033%=      5-min Rain = 0
KCR1 191753Z 16006KT 22/05 A2993 RMK A01 T02150047  RH  033%=      5-min Rain = 0
KCR1 191754Z 16006KT 22/05 A2993 RMK A01 T02150047  RH  033%=      5-min Rain = 0
KCR1 191755Z 16005KT 22/05 A2993 RMK A01 T02160048  RH  033%=      5-min Rain = 0
KCR1 191756Z 17006KT 22/05 A2993 RMK A01 T02170049  RH  033%=      5-min Rain = 0
KCR1 191757Z 17007KT 22/05 A2993 RMK A01 T02180049  RH  033%=      5-min Rain = 0
KCR1 191758Z 16006KT 22/05 A2993 RMK A01 T02200050  RH  033%=      5-min Rain = 0
KCR1 191759Z 16006KT 22/05 A2993 RMK A01 T02210051  RH  033%=      5-min Rain = 0
KCR1 191800Z 18006KT 22/05 A2993 RMK A01 T02230051  RH  033%=      5-min Rain = 0
KCR1 191801Z 19006KT 22/05 A2993 RMK A01 T02240049  RH  032%=      5-min Rain = 0
KCR1 191802Z 16006KT 22/05 A2993 RMK A01 T02230050  RH  032%=      5-min Rain = 0
KCR1 191803Z 16006KT 22/05 A2993 RMK A01 T02240051  RH  033%=      5-min Rain = 0
KCR1 191804Z 16005KT 23/05 A2993 RMK A01 T02250050  RH  032%=      5-min Rain = 0
KCR1 191805Z 16004KT 22/05 A2992 RMK A01 T02230049  RH  032%=      5-min Rain = 0
KCR1 191806Z 16005KT 22/05 A2992 RMK A01 T02220050  RH  033%=      5-min Rain = 0
KCR1 191807Z 15006KT 22/05 A2992 RMK A01 T02240054  RH  033%=      5-min Rain = 0
KCR1 191808Z 16007KT 23/05 A2992 RMK A01 T02280054  RH  032%=      5-min Rain = 0
KCR1 191809Z 17009KT 23/05 A2992 RMK A01 T02290052  RH  032%=      5-min Rain = 0
KCR1 191810Z 17010KT 23/05 A2992 RMK A01 T02270052  RH  032%=      5-min Rain = 0
KCR1 191811Z 17008KT 23/05 A2992 RMK A01 T02260053  RH  033%=      5-min Rain = 0
KCR1 191812Z 18006KT 23/05 A2992 RMK A01 T02260054  RH  033%=      5-min Rain = 0
KCR1 191813Z 16004KT 23/05 A2992 RMK A01 T02280054  RH  032%=      5-min Rain = 0
KCR1 191814Z 17005KT 23/05 A2992 RMK A01 T02290054  RH  032%=      5-min Rain = 0
KCR1 191815Z 17004KT 23/06 A2992 RMK A01 T02300055  RH  032%=      5-min Rain = 0
KCR1 191816Z 17004KT 23/06 A2992 RMK A01 T02320055  RH  032%=      5-min Rain = 0
KCR1 191817Z 18004KT 23/06 A2992 RMK A01 T02330056  RH  032%=      5-min Rain = 0
KCR1 191818Z 16008KT 24/06 A2992 RMK A01 T02350056  RH  032%=      5-min Rain = 0
KCR1 191819Z 16007KT 23/06 A2992 RMK A01 T02340055  RH  031%=      5-min Rain = 0
KCR1 191820Z 17009KT 23/06 A2992 RMK A01 T02330056  RH  032%=      5-min Rain = 0
KCR1 191821Z 17006KT 23/05 A2992 RMK A01 T02320054  RH  032%=      5-min Rain = 0
KCR1 191822Z 19008KT 23/06 A2992 RMK A01 T02320055  RH  032%=      5-min Rain = 0
KCR1 191823Z 19009KT 23/06 A2992 RMK A01 T02330056  RH  032%=      5-min Rain = 0
KCR1 191824Z 20007KT 23/06 A2991 RMK A01 T02340056  RH  032%=      5-min Rain = 0
KCR1 191825Z 20006KT 23/06 A2991 RMK A01 T02340055  RH  032%=      5-min Rain = 0
KCR1 191826Z 20006KT 23/06 A2991 RMK A01 T02330056  RH  032%=      5-min Rain = 0
KCR1 191827Z 18009KT 23/06 A2991 RMK A01 T02320056  RH  032%=      5-min Rain = 0
KCR1 191828Z 17009KT 23/06 A2991 RMK A01 T02320057  RH  032%=      5-min Rain = 0
KCR1 191829Z 17008KT 23/06 A2991 RMK A01 T02310056  RH  032%=      5-min Rain = 0
KCR1 191830Z 17010KT 23/06 A2991 RMK A01 T02300057  RH  033%=      5-min Rain = 0
KCR1 191831Z 17007KT 23/06 A2991 RMK A01 T02300055  RH  032%=      5-min Rain = 0
KCR1 191832Z 17007KT 23/06 A2991 RMK A01 T02290059  RH  033%=      5-min Rain = 0
KCR1 191833Z 17007KT 23/06 A2991 RMK A01 T02320060  RH  033%=      5-min Rain = 0
KCR1 191834Z 16009KT 24/06 A2991 RMK A01 T02350060  RH  032%=      5-min Rain = 0
KCR1 191835Z 16010KT 24/06 A2991 RMK A01 T02360060  RH  032%=      5-min Rain = 0
KCR1 191836Z 17009KT 24/06 A2991 RMK A01 T02360058  RH  032%=      5-min Rain = 0
KCR1 191837Z 18008KT 24/06 A2991 RMK A01 T02350058  RH  032%=      5-min Rain = 0
KCR1 191838Z 20008KT 24/06 A2991 RMK A01 T02370061  RH  032%=      5-min Rain = 0
KCR1 191839Z 20008KT 24/06 A2991 RMK A01 T02380060  RH  032%=      5-min Rain = 0
KCR1 191840Z 18006KT 24/06 A2991 RMK A01 T02380060  RH  032%=      5-min Rain = 0
KCR1 191841Z 19008KT 24/06 A299 RMK A01 T02380062  RH  032%=      5-min Rain = 0
KCR1 191842Z 18008KT 24/06 A299 RMK A01 T02390061  RH  032%=      5-min Rain = 0
KCR1 191843Z 19010KT 24/06 A299 RMK A01 T02410063  RH  032%=      5-min Rain = 0
KCR1 191844Z 19009KT 24/06 A299 RMK A01 T02430061  RH  031%=      5-min Rain = 0
KCR1 191845Z 19010KT 24/06 A299 RMK A01 T02420060  RH  031%=      5-min Rain = 0
KCR1 191846Z 18009KT 24/06 A299 RMK A01 T02410062  RH  032%=      5-min Rain = 0
KCR1 191847Z 19011KT 24/06 A299 RMK A01 T02430062  RH  031%=      5-min Rain = 0
KCR1 191848Z 19009KT 24/06 A299 RMK A01 T02420059  RH  031%=      5-min Rain = 0
KCR1 191849Z 19010KT 24/06 A299 RMK A01 T02400062  RH  032%=      5-min Rain = 0
KCR1 191850Z 17011KT 24/06 A299 RMK A01 T02430063  RH  032%=      5-min Rain = 0
KCR1 191851Z 17012KT 24/06 A299 RMK A01 T02440062  RH  031%=      5-min Rain = 0
KCR1 191852Z 18011KT 24/06 A299 RMK A01 T02420061  RH  031%=      5-min Rain = 0
KCR1 191853Z 18010KT 24/06 A299 RMK A01 T02400061  RH  032%=      5-min Rain = 0
KCR1 191854Z 19010KT 24/06 A299 RMK A01 T02400063  RH  032%=      5-min Rain = 0
KCR1 191855Z 19009KT 24/06 A299 RMK A01 T02400063  RH  032%=      5-min Rain = 0
KCR1 191856Z 18008KT 24/06 A2989 RMK A01 T02400064  RH  032%=      5-min Rain = 0
KCR1 191857Z 17009KT 24/07 A2989 RMK A01 T02420065  RH  032%=      5-min Rain = 0
KCR1 191858Z 16011KT 24/06 A2989 RMK A01 T02440064  RH  031%=      5-min Rain = 0
KCR1 191859Z 16011KT 24/06 A2989 RMK A01 T02440064  RH  031%=      5-min Rain = 0
KCR1 191900Z 17013KT 25/06 A2989 RMK A01 T02450064  RH  031%=      5-min Rain = 0
KCR1 191901Z 17011KT 25/07 A2989 RMK A01 T02450065  RH  031%=      5-min Rain = 0
KCR1 191902Z 17009KT 25/07 A2989 RMK A01 T02470067  RH  032%=      5-min Rain = 0
KCR1 191903Z 19010KT 25/07 A2989 RMK A01 T02490065  RH  031%=      5-min Rain = 0
KCR1 191904Z 21012KT 25/06 A2989 RMK A01 T02490063  RH  030%=      5-min Rain = 0
KCR1 191905Z 20010KT 25/06 A2989 RMK A01 T02470063  RH  031%=      5-min Rain = 0
KCR1 191906Z 18012KT 25/06 A2989 RMK A01 T02460062  RH  031%=      5-min Rain = 0
KCR1 191907Z 17010KT 24/06 A2989 RMK A01 T02440061  RH  031%=      5-min Rain = 0
KCR1 191908Z 17012KT 24/06 A2989 RMK A01 T02430064  RH  032%=      5-min Rain = 0
KCR1 191909Z 17012KT 24/06 A2989 RMK A01 T02430064  RH  032%=      5-min Rain = 0
KCR1 191910Z 17012KT 24/06 A2989 RMK A01 T02430063  RH  031%=      5-min Rain = 0
KCR1 191911Z 17012KT 24/06 A2989 RMK A01 T02430060  RH  031%=      5-min Rain = 0
KCR1 191912Z 18012KT 24/06 A2989 RMK A01 T02420060  RH  031%=      5-min Rain = 0
KCR1 191913Z 18011KT 24/06 A2988 RMK A01 T02410062  RH  031%=      5-min Rain = 0
KCR1 191914Z 18010KT 24/06 A2988 RMK A01 T02410062  RH  031%=      5-min Rain = 0
KCR1 191915Z 17011KT 24/06 A2988 RMK A01 T02410062  RH  032%=      5-min Rain = 0
KCR1 191916Z 18013KT 24/06 A2988 RMK A01 T02410062  RH  032%=      5-min Rain = 0
KCR1 191917Z 17011KT 24/06 A2988 RMK A01 T02410061  RH  031%=      5-min Rain = 0
KCR1 191918Z 17010KT 24/06 A2988 RMK A01 T02420063  RH  032%=      5-min Rain = 0
KCR1 191919Z 17011KT 24/06 A2988 RMK A01 T02420062  RH  031%=      5-min Rain = 0
KCR1 191920Z 18010KT 24/06 A2988 RMK A01 T02410063  RH  032%=      5-min Rain = 0
KCR1 191921Z 17012KT 24/07 A2988 RMK A01 T02410065  RH  032%=      5-min Rain = 0
KCR1 191922Z 17013KT 24/07 A2988 RMK A01 T02430065  RH  032%=      5-min Rain = 0
KCR1 191923Z 17011KT 24/07 A2988 RMK A01 T02430065  RH  032%=      5-min Rain = 0
KCR1 191924Z 17009KT 24/07 A2988 RMK A01 T02430066  RH  032%=      5-min Rain = 0
KCR1 191925Z 17010KT 24/07 A2988 RMK A01 T02440066  RH  032%=      5-min Rain = 0
KCR1 191926Z 17012KT 24/07 A2988 RMK A01 T02440065  RH  032%=      5-min Rain = 0
KCR1 191927Z 17013KT 24/07 A2988 RMK A01 T02420065  RH  032%=      5-min Rain = 0
KCR1 191928Z 17014KT 24/07 A2988 RMK A01 T02410065  RH  032%=      5-min Rain = 0
KCR1 191929Z 17013KT 24/07 A2988 RMK A01 T02410065  RH  032%=      5-min Rain = 0
KCR1 191930Z 17013KT 24/07 A2987 RMK A01 T02410065  RH  032%=      5-min Rain = 0
KCR1 191931Z 17012KT 24/07 A2987 RMK A01 T02410066  RH  032%=      5-min Rain = 0
KCR1 191932Z 17011KT 24/07 A2987 RMK A01 T02420066  RH  032%=      5-min Rain = 0
KCR1 191933Z 18011KT 24/07 A2987 RMK A01 T02410065  RH  032%=      5-min Rain = 0
KCR1 191934Z 17012KT 24/07 A2987 RMK A01 T02420067  RH  032%=      5-min Rain = 0
KCR1 191935Z 17010KT 25/07 A2987 RMK A01 T02450068  RH  032%=      5-min Rain = 0
KCR1 191936Z 19013KT 25/07 A2987 RMK A01 T02480068  RH  032%=      5-min Rain = 0
KCR1 191937Z 19015KT 25/07 A2987 RMK A01 T02490066  RH  031%=      5-min Rain = 0
KCR1 191938Z 20014KT 25/07 A2987 RMK A01 T02480066  RH  031%=      5-min Rain = 0
KCR1 191939Z 18011KT 25/07 A2987 RMK A01 T02480066  RH  031%=      5-min Rain = 0
KCR1 191940Z 17012KT 25/07 A2987 RMK A01 T02480068  RH  031%=      5-min Rain = 0
KCR1 191941Z 17012KT 25/07 A2986 RMK A01 T02480069  RH  032%=      5-min Rain = 0
KCR1 191942Z 18012KT 25/07 A2986 RMK A01 T02480068  RH  031%=      5-min Rain = 0
KCR1 191943Z 18011KT 25/07 A2986 RMK A01 T02480067  RH  031%=      5-min Rain = 0
KCR1 191944Z 19014KT 25/07 A2986 RMK A01 T02480066  RH  031%=      5-min Rain = 0
KCR1 191945Z 20012KT 25/07 A2986 RMK A01 T02470066  RH  031%=      5-min Rain = 0
KCR1 191946Z 19011KT 25/07 A2986 RMK A01 T02470067  RH  031%=      5-min Rain = 0
KCR1 191947Z 19011KT 25/06 A2986 RMK A01 T02480064  RH  031%=      5-min Rain = 0
KCR1 191948Z 18012KT 25/07 A2986 RMK A01 T02500065  RH  031%=      5-min Rain = 0
KCR1 191949Z 17013KT 25/07 A2986 RMK A01 T02520065  RH  030%=      5-min Rain = 0
KCR1 191950Z 17013KT 25/07 A2986 RMK A01 T02520066  RH  030%=      5-min Rain = 0
KCR1 191951Z 17014KT 25/07 A2986 RMK A01 T02510066  RH  031%=      5-min Rain = 0
KCR1 191952Z 18015KT 25/07 A2986 RMK A01 T02510065  RH  030%=      5-min Rain = 0
KCR1 191953Z 18013KT 25/07 A2986 RMK A01 T02490065  RH  031%=      5-min Rain = 0
KCR1 191954Z 18013KT 25/07 A2986 RMK A01 T02490066  RH  031%=      5-min Rain = 0
KCR1 191955Z 18015KT 25/07 A2986 RMK A01 T02490065  RH  031%=      5-min Rain = 0
KCR1 191956Z 18013KT 25/07 A2986 RMK A01 T02500065  RH  031%=      5-min Rain = 0
KCR1 191957Z 19014KT 25/06 A2986 RMK A01 T02490064  RH  030%=      5-min Rain = 0
KCR1 191958Z 19013KT 25/06 A2986 RMK A01 T02490063  RH  030%=      5-min Rain = 0
KCR1 191959Z 18013KT 25/06 A2985 RMK A01 T02480064  RH  031%=      5-min Rain = 0
KCR1 192000Z 18017KT 25/06 A2985 RMK A01 T02480064  RH  031%=      5-min Rain = 0
KCR1 192001Z 18016KT 25/06 A2985 RMK A01 T02490063  RH  030%=      5-min Rain = 0
KCR1 192002Z 18014KT 25/06 A2985 RMK A01 T02490064  RH  030%=      5-min Rain = 0
KCR1 192003Z 19012KT 25/06 A2985 RMK A01 T02490064  RH  030%=      5-min Rain = 0
KCR1 192004Z 18013KT 25/07 A2985 RMK A01 T02500065  RH  031%=      5-min Rain = 0
KCR1 192005Z 17012KT 25/07 A2985 RMK A01 T02520065  RH  030%=      5-min Rain = 0
KCR1 192006Z 17010KT 25/07 A2985 RMK A01 T02520065  RH  030%=      5-min Rain = 0
KCR1 192007Z 16012KT 25/07 A2985 RMK A01 T02520065  RH  030%=      5-min Rain = 0
KCR1 192008Z 17014KT 25/07 A2985 RMK A01 T02520067  RH  030%=      5-min Rain = 0
KCR1 192009Z 16016KT 25/07 A2985 RMK A01 T02530066  RH  030%=      5-min Rain = 0
KCR1 192010Z 16013KT 25/07 A2985 RMK A01 T02520066  RH  030%=      5-min Rain = 0
KCR1 192011Z 16012KT 25/07 A2985 RMK A01 T02520067  RH  030%=      5-min Rain = 0
KCR1 192012Z 17013KT 25/07 A2985 RMK A01 T02530066  RH  030%=      5-min Rain = 0
KCR1 192013Z 18009KT 25/07 A2985 RMK A01 T02530068  RH  031%=      5-min Rain = 0
KCR1 192014Z 17013KT 26/07 A2984 RMK A01 T02550068  RH  030%=      5-min Rain = 0
KCR1 192015Z 17012KT 26/07 A2984 RMK A01 T02550067  RH  030%=      5-min Rain = 0
KCR1 192016Z 17012KT 25/07 A2984 RMK A01 T02540066  RH  030%=      5-min Rain = 0
KCR1 192017Z 16013KT 25/07 A2984 RMK A01 T02530066  RH  030%=      5-min Rain = 0
KCR1 192018Z 17014KT 25/07 A2984 RMK A01 T02540066  RH  030%=      5-min Rain = 0
KCR1 192019Z 17014KT 26/07 A2984 RMK A01 T02550066  RH  030%=      5-min Rain = 0
KCR1 192020Z 18013KT 26/07 A2984 RMK A01 T02550067  RH  030%=      5-min Rain = 0
KCR1 192021Z 18014KT 26/06 A2984 RMK A01 T02560064  RH  029%=      5-min Rain = 0
KCR1 192022Z 18014KT 26/06 A2984 RMK A01 T02570060  RH  028%=      5-min Rain = 0
KCR1 192023Z 16016G21KT 26/06 A2984 RMK A01 T02570063  RH  029%=      5-min Rain = 0
KCR1 192024Z 16015KT 26/07 A2984 RMK A01 T02560066  RH  030%=      5-min Rain = 0
KCR1 192025Z 17016KT 25/07 A2984 RMK A01 T02540067  RH  030%=      5-min Rain = 0
KCR1 192026Z 18018KT 25/06 A2984 RMK A01 T02540057  RH  028%=      5-min Rain = 0
KCR1 192027Z 19022G28KT 25/05 A2983 RMK A01 T02530050  RH  027%=      5-min Rain = 0
KCR1 192028Z 18019G24KT 25/05 A2983 RMK A01 T02500048  RH  027%=      5-min Rain = 0
KCR1 192029Z 17014KT 25/05 A2984 RMK A01 T02500052  RH  028%=      5-min Rain = 0
KCR1 192030Z 18014KT 25/05 A2984 RMK A01 T02520051  RH  027%=      5-min Rain = 0
KCR1 192031Z 18017KT 25/05 A2983 RMK A01 T02540051  RH  027%=      5-min Rain = 0
KCR1 192032Z 18014KT 26/06 A2983 RMK A01 T02560055  RH  028%=      5-min Rain = 0
KCR1 192033Z 18013KT 26/06 A2983 RMK A01 T02560060  RH  028%=      5-min Rain = 0
KCR1 192034Z 17012KT 26/06 A2983 RMK A01 T02580062  RH  029%=      5-min Rain = 0
KCR1 192035Z 18015KT 26/06 A2983 RMK A01 T02600060  RH  028%=      5-min Rain = 0
KCR1 192036Z 18015KT 26/06 A2983 RMK A01 T02580056  RH  027%=      5-min Rain = 0
KCR1 192037Z 18015KT 26/06 A2983 RMK A01 T02570056  RH  028%=      5-min Rain = 0
KCR1 192038Z 17019KT 26/05 A2983 RMK A01 T02580054  RH  027%=      5-min Rain = 0
KCR1 192039Z 17020KT 26/05 A2983 RMK A01 T02580052  RH  027%=      5-min Rain = 0
KCR1 192040Z 16021KT 26/05 A2983 RMK A01 T02570052  RH  027%=      5-min Rain = 0
KCR1 192041Z 16021G27KT 26/05 A2983 RMK A01 T02550050  RH  027%=      5-min Rain = 0
KCR1 192042Z 17022G27KT 26/05 A2983 RMK A01 T02550050  RH  027%=      5-min Rain = 0
KCR1 192043Z 18019G24KT 26/05 A2983 RMK A01 T02550049  RH  027%=      5-min Rain = 0
KCR1 192044Z 18019KT 26/05 A2983 RMK A01 T02560049  RH  026%=      5-min Rain = 0
KCR1 192045Z 18020KT 26/05 A2983 RMK A01 T02560049  RH  026%=      5-min Rain = 0
KCR1 192046Z 18013G18KT 26/05 A2983 RMK A01 T02550049  RH  027%=      5-min Rain = 0
KCR1 192047Z 19016KT 26/05 A2983 RMK A01 T02550051  RH  027%=      5-min Rain = 0
KCR1 192048Z 19016G21KT 26/05 A2983 RMK A01 T02560054  RH  027%=      5-min Rain = 0
KCR1 192049Z 19015KT 26/05 A2983 RMK A01 T02560054  RH  027%=      5-min Rain = 0
KCR1 192050Z 19013KT 26/06 A2983 RMK A01 T02560056  RH  028%=      5-min Rain = 0
KCR1 192051Z 18017KT 26/06 A2983 RMK A01 T02570057  RH  028%=      5-min Rain = 0
KCR1 192052Z 18018KT 26/06 A2983 RMK A01 T02560057  RH  028%=      5-min Rain = 0
KCR1 192053Z 18017KT 26/06 A2983 RMK A01 T02550057  RH  028%=      5-min Rain = 0
KCR1 192054Z 17017KT 25/06 A2983 RMK A01 T02540056  RH  028%=      5-min Rain = 0
KCR1 192055Z 17017G22KT 25/06 A2983 RMK A01 T02540055  RH  028%=      5-min Rain = 0
KCR1 192056Z 18019KT 25/06 A2983 RMK A01 T02530057  RH  028%=      5-min Rain = 0
KCR1 192057Z 19018KT 25/06 A2983 RMK A01 T02540056  RH  028%=      5-min Rain = 0
KCR1 192058Z 19017KT 25/05 A2983 RMK A01 T02540054  RH  028%=      5-min Rain = 0
KCR1 192059Z 18014KT 26/06 A2983 RMK A01 T02550059  RH  028%=      5-min Rain = 0
KCR1 192100Z 17020KT 26/06 A2983 RMK A01 T02560058  RH  028%=      5-min Rain = 0
KCR1 192101Z 18018KT 26/06 A2983 RMK A01 T02550056  RH  028%=      5-min Rain = 0
KCR1 192102Z 18015KT 25/06 A2983 RMK A01 T02540056  RH  028%=      5-min Rain = 0
KCR1 192103Z 18015G20KT 25/06 A2983 RMK A01 T02540057  RH  028%=      5-min Rain = 0
KCR1 192104Z 18016KT 26/06 A2983 RMK A01 T02560058  RH  028%=      5-min Rain = 0
KCR1 192105Z 18020KT 26/06 A2983 RMK A01 T02560057  RH  028%=      5-min Rain = 0
KCR1 192106Z 19017KT 26/06 A2983 RMK A01 T02550057  RH  028%=      5-min Rain = 0
KCR1 192107Z 18015KT 25/06 A2983 RMK A01 T02540057  RH  028%=      5-min Rain = 0
KCR1 192108Z 16016G21KT 26/06 A2982 RMK A01 T02550058  RH  028%=      5-min Rain = 0
KCR1 192109Z 17018KT 26/06 A2982 RMK A01 T02550057  RH  028%=      5-min Rain = 0
KCR1 192110Z 17019KT 25/06 A2982 RMK A01 T02540057  RH  028%=      5-min Rain = 0
KCR1 192111Z 18018KT 25/06 A2982 RMK A01 T02540057  RH  028%=      5-min Rain = 0
KCR1 192112Z 18017KT 25/06 A2982 RMK A01 T02540057  RH  028%=      5-min Rain = 0
KCR1 192113Z 18017KT 25/06 A2982 RMK A01 T02540057  RH  028%=      5-min Rain = 0
KCR1 192114Z 18019KT 25/06 A2982 RMK A01 T02540056  RH  028%=      5-min Rain = 0
KCR1 192115Z 18017KT 25/06 A2982 RMK A01 T02540057  RH  028%=      5-min Rain = 0
KCR1 192116Z 18018KT 25/06 A2982 RMK A01 T02540057  RH  028%=      5-min Rain = 0
KCR1 192117Z 18017KT 25/06 A2982 RMK A01 T02540056  RH  028%=      5-min Rain = 0
KCR1 192118Z 18020KT 26/06 A2982 RMK A01 T02550056  RH  028%=      5-min Rain = 0
KCR1 192119Z 18019KT 26/05 A2982 RMK A01 T02550053  RH  027%=      5-min Rain = 0
KCR1 192120Z 19018KT 26/05 A2982 RMK A01 T02550054  RH  027%=      5-min Rain = 0
KCR1 192121Z 19016KT 26/06 A2982 RMK A01 T02560055  RH  027%=      5-min Rain = 0
KCR1 192122Z 19015KT 26/06 A2982 RMK A01 T02570055  RH  027%=      5-min Rain = 0
KCR1 192123Z 19016KT 26/05 A2982 RMK A01 T02570053  RH  027%=      5-min Rain = 0
KCR1 192124Z 19015KT 26/05 A2982 RMK A01 T02570053  RH  027%=      5-min Rain = 0
KCR1 192125Z 19018KT 26/05 A2982 RMK A01 T02570052  RH  027%=      5-min Rain = 0
KCR1 192126Z 18017KT 26/05 A2982 RMK A01 T02570053  RH  027%=      5-min Rain = 0
KCR1 192127Z 18017KT 26/05 A2982 RMK A01 T02570053  RH  027%=      5-min Rain = 0
KCR1 192128Z 18015G20KT 26/05 A2982 RMK A01 T02570054  RH  027%=      5-min Rain = 0
KCR1 192129Z 19017KT 26/06 A2982 RMK A01 T02570055  RH  027%=      5-min Rain = 0
KCR1 192130Z 18020KT 26/06 A2982 RMK A01 T02570055  RH  027%=      5-min Rain = 0
KCR1 192131Z 18019KT 26/06 A2982 RMK A01 T02560055  RH  027%=      5-min Rain = 0
KCR1 192132Z 19019KT 26/05 A2982 RMK A01 T02550054  RH  028%=      5-min Rain = 0
KCR1 192133Z 19020KT 26/06 A2982 RMK A01 T02550055  RH  028%=      5-min Rain = 0
KCR1 192134Z 19020G25KT 25/06 A2982 RMK A01 T02540055  RH  028%=      5-min Rain = 0
KCR1 192135Z 19021KT 25/06 A2982 RMK A01 T02540055  RH  028%=      5-min Rain = 0
KCR1 192136Z 19021KT 25/05 A2982 RMK A01 T02540054  RH  028%=      5-min Rain = 0
KCR1 192137Z 18018KT 25/06 A2982 RMK A01 T02530055  RH  028%=      5-min Rain = 0
KCR1 192138Z 18017KT 25/06 A2982 RMK A01 T02540055  RH  028%=      5-min Rain = 0
KCR1 192139Z 18016KT 25/06 A2982 RMK A01 T02540056  RH  028%=      5-min Rain = 0
KCR1 192140Z 18019KT 26/06 A2982 RMK A01 T02550057  RH  028%=      5-min Rain = 0
KCR1 192141Z 19019KT 25/06 A2982 RMK A01 T02540056  RH  028%=      5-min Rain = 0
KCR1 192142Z 19018KT 25/06 A2982 RMK A01 T02530057  RH  028%=      5-min Rain = 0
KCR1 192143Z 19018KT 25/06 A2982 RMK A01 T02530057  RH  028%=      5-min Rain = 0
KCR1 192144Z 19018KT 25/06 A2982 RMK A01 T02530058  RH  028%=      5-min Rain = 0
KCR1 192145Z 19017KT 25/06 A2982 RMK A01 T02530057  RH  028%=      5-min Rain = 0
KCR1 192146Z 19016KT 25/06 A2982 RMK A01 T02530057  RH  028%=      5-min Rain = 0
KCR1 192147Z 19014KT 25/06 A2981 RMK A01 T02530058  RH  029%=      5-min Rain = 0
KCR1 192148Z 18013KT 25/06 A2981 RMK A01 T02540059  RH  029%=      5-min Rain = 0
KCR1 192149Z 18015KT 26/06 A2981 RMK A01 T02550059  RH  028%=      5-min Rain = 0
KCR1 192150Z 18014KT 26/06 A2981 RMK A01 T02550058  RH  028%=      5-min Rain = 0
KCR1 192151Z 18015KT 25/06 A2981 RMK A01 T02540058  RH  028%=      5-min Rain = 0
KCR1 192152Z 18017KT 25/06 A2981 RMK A01 T02540058  RH  028%=      5-min Rain = 0
KCR1 192153Z 19017KT 25/06 A2981 RMK A01 T02540057  RH  028%=      5-min Rain = 0
KCR1 192154Z 19017KT 25/06 A2981 RMK A01 T02540057  RH  028%=      5-min Rain = 0
KCR1 192155Z 19018KT 25/06 A2981 RMK A01 T02540059  RH  029%=      5-min Rain = 0
KCR1 192156Z 18016KT 25/06 A2981 RMK A01 T02540058  RH  029%=      5-min Rain = 0
KCR1 192157Z 18018KT 25/06 A2981 RMK A01 T02540058  RH  029%=      5-min Rain = 0
KCR1 192158Z 19018KT 25/06 A2981 RMK A01 T02530057  RH  028%=      5-min Rain = 0
KCR1 192159Z 18017KT 25/06 A2981 RMK A01 T02530058  RH  028%=      5-min Rain = 0
KCR1 192200Z 18016KT 25/06 A2981 RMK A01 T02530057  RH  029%=      5-min Rain = 0
KCR1 192201Z 18016KT 25/06 A2981 RMK A01 T02530058  RH  029%=      5-min Rain = 0
KCR1 192202Z 19014KT 25/06 A2982 RMK A01 T02530058  RH  029%=      5-min Rain = 0
KCR1 192203Z 19011KT 25/06 A2982 RMK A01 T02530059  RH  029%=      5-min Rain = 0
KCR1 192204Z 19011KT 25/06 A2982 RMK A01 T02530060  RH  029%=      5-min Rain = 0
KCR1 192205Z 19011KT 25/06 A2982 RMK A01 T02540060  RH  029%=      5-min Rain = 0
KCR1 192206Z 20016KT 25/06 A2982 RMK A01 T02540059  RH  029%=      5-min Rain = 0
KCR1 192207Z 19014KT 25/06 A2982 RMK A01 T02540059  RH  029%=      5-min Rain = 0
KCR1 192208Z 19012KT 25/06 A2981 RMK A01 T02540059  RH  029%=      5-min Rain = 0
KCR1 192209Z 19012KT 25/06 A2981 RMK A01 T02530060  RH  029%=      5-min Rain = 0
KCR1 192210Z 19011KT 25/06 A2981 RMK A01 T02530060  RH  029%=      5-min Rain = 0
KCR1 192211Z 19010KT 25/06 A2981 RMK A01 T02530061  RH  029%=      5-min Rain = 0
KCR1 192212Z 19013KT 25/06 A2981 RMK A01 T02530060  RH  029%=      5-min Rain = 0
KCR1 192213Z 18010KT 25/06 A2981 RMK A01 T02530059  RH  029%=      5-min Rain = 0
KCR1 192214Z 18011KT 25/06 A2981 RMK A01 T02530060  RH  029%=      5-min Rain = 0
KCR1 192215Z 18010KT 25/06 A2981 RMK A01 T02530060  RH  029%=      5-min Rain = 0
KCR1 192216Z 18009KT 25/06 A2981 RMK A01 T02530061  RH  029%=      5-min Rain = 0
KCR1 192217Z 19010KT 25/06 A2981 RMK A01 T02540060  RH  029%=      5-min Rain = 0
KCR1 192218Z 18012KT 25/06 A2981 RMK A01 T02540061  RH  029%=      5-min Rain = 0
KCR1 192219Z 19013KT 25/06 A2981 RMK A01 T02540059  RH  029%=      5-min Rain = 0
KCR1 192220Z 18011KT 25/06 A2981 RMK A01 T02530059  RH  029%=      5-min Rain = 0
KCR1 192221Z 18011KT 25/06 A2981 RMK A01 T02520059  RH  029%=      5-min Rain = 0
KCR1 192222Z 18012KT 25/06 A2981 RMK A01 T02520058  RH  029%=      5-min Rain = 0
KCR1 192223Z 18012KT 25/06 A2981 RMK A01 T02520058  RH  029%=      5-min Rain = 0
KCR1 192224Z 18011KT 25/06 A2981 RMK A01 T02520058  RH  029%=      5-min Rain = 0
KCR1 192225Z 17009KT 25/06 A2981 RMK A01 T02530059  RH  029%=      5-min Rain = 0
KCR1 192226Z 16009KT 25/06 A2981 RMK A01 T02520059  RH  029%=      5-min Rain = 0
KCR1 192227Z 17010KT 25/06 A2981 RMK A01 T02520059  RH  029%=      5-min Rain = 0
KCR1 192228Z 17010KT 25/06 A2981 RMK A01 T02520059  RH  029%=      5-min Rain = 0
KCR1 192229Z 17010KT 25/06 A2981 RMK A01 T02520059  RH  029%=      5-min Rain = 0
KCR1 192230Z 16011KT 25/06 A2981 RMK A01 T02510057  RH  029%=      5-min Rain = 0
KCR1 192231Z 16014KT 25/06 A2981 RMK A01 T02510057  RH  029%=      5-min Rain = 0
KCR1 192232Z 16014KT 25/06 A2981 RMK A01 T02510056  RH  029%=      5-min Rain = 0
KCR1 192233Z 16012KT 25/06 A2981 RMK A01 T02510057  RH  029%=      5-min Rain = 0
KCR1 192234Z 16012KT 25/06 A2981 RMK A01 T02500057  RH  029%=      5-min Rain = 0
KCR1 192235Z 17011KT 25/06 A2981 RMK A01 T02500057  RH  029%=      5-min Rain = 0
KCR1 192236Z 16011KT 25/06 A2981 RMK A01 T02500057  RH  029%=      5-min Rain = 0
KCR1 192237Z 17012KT 25/06 A2981 RMK A01 T02490057  RH  029%=      5-min Rain = 0
KCR1 192238Z 16012KT 25/06 A2981 RMK A01 T02490057  RH  029%=      5-min Rain = 0
KCR1 192239Z 16011KT 25/06 A2981 RMK A01 T02490057  RH  029%=      5-min Rain = 0
KCR1 192240Z 16010KT 25/06 A2981 RMK A01 T02480057  RH  029%=      5-min Rain = 0
KCR1 192241Z 17013KT 25/06 A2981 RMK A01 T02480056  RH  029%=      5-min Rain = 0
KCR1 192242Z 16012KT 25/06 A2981 RMK A01 T02470055  RH  029%=      5-min Rain = 0
KCR1 192243Z 16011KT 25/06 A298 RMK A01 T02470056  RH  029%=      5-min Rain = 0
KCR1 192244Z 17014KT 25/06 A298 RMK A01 T02470055  RH  029%=      5-min Rain = 0
KCR1 192245Z 17013KT 25/05 A298 RMK A01 T02470054  RH  029%=      5-min Rain = 0
KCR1 192246Z 17013KT 25/06 A298 RMK A01 T02470055  RH  029%=      5-min Rain = 0
KCR1 192247Z 17015KT 25/05 A298 RMK A01 T02460053  RH  029%=      5-min Rain = 0
KCR1 192248Z 17014KT 25/05 A298 RMK A01 T02470053  RH  029%=      5-min Rain = 0
KCR1 192249Z 17012KT 25/05 A298 RMK A01 T02470054  RH  029%=      5-min Rain = 0
KCR1 192250Z 17013KT 25/05 A298 RMK A01 T02460053  RH  029%=      5-min Rain = 0
KCR1 192251Z 17013KT 25/05 A298 RMK A01 T02450053  RH  029%=      5-min Rain = 0
KCR1 192252Z 17013KT 25/05 A298 RMK A01 T02450053  RH  029%=      5-min Rain = 0
KCR1 192253Z 17013KT 25/05 A298 RMK A01 T02450054  RH  029%=      5-min Rain = 0
KCR1 192254Z 16013KT 24/05 A298 RMK A01 T02440054  RH  029%=      5-min Rain = 0
KCR1 192255Z 17013KT 24/05 A298 RMK A01 T02440054  RH  029%=      5-min Rain = 0
KCR1 192256Z 17012KT 24/05 A298 RMK A01 T02430054  RH  030%=      5-min Rain = 0
KCR1 192257Z 17011KT 24/05 A298 RMK A01 T02420054  RH  030%=      5-min Rain = 0
KCR1 192258Z 17012KT 24/06 A298 RMK A01 T02410055  RH  030%=      5-min Rain = 0
KCR1 192259Z 17011KT 24/05 A298 RMK A01 T02400054  RH  030%=      5-min Rain = 0
KCR1 192300Z 17012KT 24/05 A298 RMK A01 T02400054  RH  030%=      5-min Rain = 0
KCR1 192301Z 17012KT 24/05 A298 RMK A01 T02400054  RH  030%=      5-min Rain = 0
KCR1 192302Z 17011KT 24/05 A298 RMK A01 T02400054  RH  030%=      5-min Rain = 0
KCR1 192303Z 17011KT 24/05 A298 RMK A01 T02390054  RH  030%=      5-min Rain = 0
KCR1 192304Z 17011KT 24/05 A298 RMK A01 T02390054  RH  030%=      5-min Rain = 0
KCR1 192305Z 17011KT 24/05 A298 RMK A01 T02380054  RH  030%=      5-min Rain = 0
KCR1 192306Z 17010KT 24/05 A298 RMK A01 T02370054  RH  031%=      5-min Rain = 0
KCR1 192307Z 17010KT 24/05 A298 RMK A01 T02360054  RH  031%=      5-min Rain = 0
KCR1 192308Z 17010KT 24/06 A298 RMK A01 T02350055  RH  031%=      5-min Rain = 0
KCR1 192309Z 17010KT 23/06 A298 RMK A01 T02330055  RH  031%=      5-min Rain = 0
KCR1 192310Z 17010KT 23/05 A298 RMK A01 T02310054  RH  032%=      5-min Rain = 0
KCR1 192311Z 17009KT 23/05 A298 RMK A01 T02300054  RH  032%=      5-min Rain = 0
KCR1 192312Z 16011KT 23/05 A298 RMK A01 T02290054  RH  032%=      5-min Rain = 0
KCR1 192313Z 16012KT 23/05 A298 RMK A01 T02290053  RH  032%=      5-min Rain = 0
KCR1 192314Z 17011KT 23/05 A298 RMK A01 T02290052  RH  032%=      5-min Rain = 0
KCR1 192315Z 17011KT 23/05 A298 RMK A01 T02290052  RH  032%=      5-min Rain = 0
KCR1 192316Z 17012KT 23/05 A298 RMK A01 T02290051  RH  031%=      5-min Rain = 0
KCR1 192317Z 17011KT 23/05 A298 RMK A01 T02280049  RH  031%=      5-min Rain = 0
KCR1 192318Z 17011KT 23/05 A298 RMK A01 T02290048  RH  031%=      5-min Rain = 0
KCR1 192319Z 16010KT 23/05 A298 RMK A01 T02290047  RH  031%=      5-min Rain = 0
KCR1 192320Z 16011KT 23/05 A298 RMK A01 T02290047  RH  031%=      5-min Rain = 0
KCR1 192321Z 17010KT 23/05 A298 RMK A01 T02270047  RH  031%=      5-min Rain = 0
KCR1 192322Z 16010KT 23/05 A298 RMK A01 T02260047  RH  031%=      5-min Rain = 0
KCR1 192323Z 16010KT 23/05 A298 RMK A01 T02250046  RH  031%=      5-min Rain = 0
KCR1 192324Z 16010KT 22/05 A298 RMK A01 T02240047  RH  031%=      5-min Rain = 0
KCR1 192325Z 16010KT 22/05 A298 RMK A01 T02220046  RH  032%=      5-min Rain = 0
KCR1 192326Z 16009KT 22/05 A298 RMK A01 T02210046  RH  032%=      5-min Rain = 0
KCR1 192327Z 16009KT 22/05 A298 RMK A01 T02200046  RH  032%=      5-min Rain = 0
KCR1 192328Z 16009KT 22/05 A298 RMK A01 T02180045  RH  032%=      5-min Rain = 0
KCR1 192329Z 16008KT 22/05 A298 RMK A01 T02180045  RH  032%=      5-min Rain = 0
KCR1 192330Z 16009KT 22/05 A2981 RMK A01 T02180046  RH  032%=      5-min Rain = 0
KCR1 192331Z 16010KT 22/05 A298 RMK A01 T02170045  RH  032%=      5-min Rain = 0
KCR1 192332Z 16009KT 22/05 A2981 RMK A01 T02170045  RH  033%=      5-min Rain = 0
KCR1 192333Z 16009KT 22/05 A2981 RMK A01 T02160045  RH  033%=      5-min Rain = 0
KCR1 192334Z 17009KT 22/04 A2981 RMK A01 T02160044  RH  032%=      5-min Rain = 0
KCR1 192335Z 17009KT 22/04 A2981 RMK A01 T02160044  RH  032%=      5-min Rain = 0
KCR1 192336Z 17010KT 22/04 A2981 RMK A01 T02150043  RH  032%=      5-min Rain = 0
KCR1 192337Z 17010KT 22/04 A2981 RMK A01 T02150043  RH  032%=      5-min Rain = 0
KCR1 192338Z 17009KT 22/04 A2981 RMK A01 T02150043  RH  032%=      5-min Rain = 0
KCR1 192339Z 17010KT 21/04 A2981 RMK A01 T02140043  RH  032%=      5-min Rain = 0
KCR1 192340Z 17010KT 21/04 A2981 RMK A01 T02140043  RH  032%=      5-min Rain = 0
KCR1 192341Z 17010KT 22/04 A2981 RMK A01 T02150043  RH  032%=      5-min Rain = 0
KCR1 192342Z 17009KT 22/04 A2981 RMK A01 T02150043  RH  032%=      5-min Rain = 0
KCR1 192343Z 17009KT 21/04 A2981 RMK A01 T02130043  RH  033%=      5-min Rain = 0
KCR1 192344Z 17010KT 21/04 A2981 RMK A01 T02120043  RH  033%=      5-min Rain = 0
KCR1 192345Z 17009KT 21/04 A2981 RMK A01 T02110042  RH  033%=      5-min Rain = 0
KCR1 192346Z 17009KT 21/04 A2981 RMK A01 T02100042  RH  033%=      5-min Rain = 0
KCR1 192347Z 17009KT 21/04 A2981 RMK A01 T02090043  RH  033%=      5-min Rain = 0
KCR1 192348Z 17009KT 21/04 A2981 RMK A01 T02090042  RH  033%=      5-min Rain = 0
KCR1 192349Z 17009KT 21/04 A2981 RMK A01 T02090042  RH  033%=      5-min Rain = 0
KCR1 192350Z 17010KT 21/04 A2981 RMK A01 T02090042  RH  033%=      5-min Rain = 0
KCR1 192351Z 17010KT 21/04 A2981 RMK A01 T02090041  RH  033%=      5-min Rain = 0
KCR1 192352Z 17011KT 21/04 A2981 RMK A01 T02100041  RH  033%=      5-min Rain = 0
KCR1 192353Z 17011KT 21/04 A2981 RMK A01 T02120041  RH  033%=      5-min Rain = 0
KCR1 192354Z 18010KT 21/04 A2981 RMK A01 T02130041  RH  032%=      5-min Rain = 0
KCR1 192355Z 17011KT 21/04 A2981 RMK A01 T02130041  RH  032%=      5-min Rain = 0
KCR1 192356Z 17010KT 21/04 A2981 RMK A01 T02130040  RH  032%=      5-min Rain = 0
KCR1 192357Z 18011KT 21/04 A2981 RMK A01 T02130041  RH  032%=      5-min Rain = 0
KCR1 192358Z 18011KT 21/04 A2981 RMK A01 T02130040  RH  032%=      5-min Rain = 0
KCR1 192359Z 18011KT 21/04 A2981 RMK A01 T02130040  RH  032%=      5-min Rain = 0
KCR1 200000Z 18011KT 21/04 A2981 RMK A01 T02130040  RH  032%=      5-min Rain = 0
KCR1 200001Z 18011KT 21/04 A2981 RMK A01 T02130040  RH  032%=      5-min Rain = 0
KCR1 200002Z 18010KT 21/04 A2981 RMK A01 T02130039  RH  032%=      5-min Rain = 0
KCR1 200003Z 18009KT 21/04 A2981 RMK A01 T02120039  RH  032%=      5-min Rain = 0
KCR1 200004Z 18010KT 21/04 A2981 RMK A01 T02110039  RH  032%=      5-min Rain = 0
KCR1 200005Z 18009KT 21/04 A298 RMK A01 T02110038  RH  032%=      5-min Rain = 0
KCR1 200006Z 18009KT 21/04 A298 RMK A01 T02100038  RH  032%=      5-min Rain = 0
KCR1 200007Z 18009KT 21/04 A298 RMK A01 T02090038  RH  033%=      5-min Rain = 0
KCR1 200008Z 18010KT 21/04 A298 RMK A01 T02070038  RH  033%=      5-min Rain = 0
KCR1 200009Z 18010KT 21/04 A298 RMK A01 T02070038  RH  033%=      5-min Rain = 0
KCR1 200010Z 18010KT 21/04 A298 RMK A01 T02070037  RH  033%=      5-min Rain = 0
KCR1 200011Z 18010KT 21/04 A298 RMK A01 T02080037  RH  033%=      5-min Rain = 0
KCR1 200012Z 17010KT 21/04 A298 RMK A01 T02080037  RH  033%=      5-min Rain = 0
KCR1 200013Z 18011KT 21/04 A298 RMK A01 T02080037  RH  032%=      5-min Rain = 0
KCR1 200014Z 18010KT 21/04 A298 RMK A01 T02080037  RH  032%=      5-min Rain = 0
KCR1 200015Z 18010KT 21/04 A298 RMK A01 T02080036  RH  032%=      5-min Rain = 0
KCR1 200016Z 18010KT 21/04 A298 RMK A01 T02080036  RH  032%=      5-min Rain = 0
KCR1 200017Z 18011KT 21/04 A298 RMK A01 T02080036  RH  032%=      5-min Rain = 0
KCR1 200018Z 18010KT 21/04 A298 RMK A01 T02080036  RH  032%=      5-min Rain = 0
KCR1 200019Z 18009KT 21/04 A298 RMK A01 T02080036  RH  032%=      5-min Rain = 0
KCR1 200020Z 18009KT 21/04 A298 RMK A01 T02080036  RH  032%=      5-min Rain = 0
KCR1 200021Z 18009KT 21/04 A298 RMK A01 T02060036  RH  033%=      5-min Rain = 0
KCR1 200022Z 18009KT 21/04 A298 RMK A01 T02050036  RH  033%=      5-min Rain = 0
KCR1 200023Z 18010KT 21/04 A298 RMK A01 T02050036  RH  033%=      5-min Rain = 0
KCR1 200024Z 18010KT 20/04 A298 RMK A01 T02040036  RH  033%=      5-min Rain = 0
KCR1 200025Z 17009KT 20/04 A298 RMK A01 T02040037  RH  033%=      5-min Rain = 0
KCR1 200026Z 17009KT 20/04 A298 RMK A01 T02030037  RH  033%=      5-min Rain = 0
KCR1 200027Z 18009KT 20/04 A298 RMK A01 T02010037  RH  034%=      5-min Rain = 0
KCR1 200028Z 18009KT 20/04 A298 RMK A01 T02010038  RH  034%=      5-min Rain = 0
KCR1 200029Z 18009KT 20/04 A298 RMK A01 T01990038  RH  034%=      5-min Rain = 0
KCR1 200030Z 18009KT 20/04 A298 RMK A01 T01980038  RH  035%=      5-min Rain = 0
KCR1 200031Z 18009KT 20/04 A298 RMK A01 T01970038  RH  035%=      5-min Rain = 0
KCR1 200032Z 18009KT 20/04 A298 RMK A01 T01960038  RH  035%=      5-min Rain = 0
KCR1 200033Z 18009KT 20/04 A2981 RMK A01 T01950038  RH  035%=      5-min Rain = 0
KCR1 200034Z 18009KT 19/04 A2981 RMK A01 T01940038  RH  035%=      5-min Rain = 0
KCR1 200035Z 18009KT 19/04 A2981 RMK A01 T01940038  RH  036%=      5-min Rain = 0
KCR1 200036Z 18009KT 19/04 A2981 RMK A01 T01940038  RH  036%=      5-min Rain = 0
KCR1 200037Z 18009KT 19/04 A2981 RMK A01 T01940038  RH  035%=      5-min Rain = 0
KCR1 200038Z 18010KT 19/04 A2981 RMK A01 T01940037  RH  035%=      5-min Rain = 0
KCR1 200039Z 18009KT 19/04 A2981 RMK A01 T01940038  RH  035%=      5-min Rain = 0
KCR1 200040Z 18008KT 19/04 A2981 RMK A01 T01940037  RH  035%=      5-min Rain = 0
KCR1 200041Z 17009KT 19/04 A2981 RMK A01 T01940037  RH  035%=      5-min Rain = 0
KCR1 200042Z 17010KT 19/04 A2981 RMK A01 T01940038  RH  035%=      5-min Rain = 0
KCR1 200043Z 16010KT 19/04 A2981 RMK A01 T01940038  RH  036%=      5-min Rain = 0
KCR1 200044Z 17009KT 19/04 A2981 RMK A01 T01930038  RH  036%=      5-min Rain = 0
KCR1 200045Z 17009KT 19/04 A2981 RMK A01 T01930038  RH  036%=      5-min Rain = 0
KCR1 200046Z 17009KT 19/04 A2981 RMK A01 T01940038  RH  036%=      5-min Rain = 0
KCR1 200047Z 16009KT 20/04 A2981 RMK A01 T01950038  RH  035%=      5-min Rain = 0
KCR1 200048Z 15009KT 19/04 A2981 RMK A01 T01940039  RH  036%=      5-min Rain = 0
KCR1 200049Z 15008KT 19/04 A2981 RMK A01 T01930038  RH  036%=      5-min Rain = 0
KCR1 200050Z 15008KT 19/04 A2981 RMK A01 T01910039  RH  036%=      5-min Rain = 0
KCR1 200051Z 15007KT 19/04 A2981 RMK A01 T01890039  RH  037%=      5-min Rain = 0
KCR1 200052Z 15006KT 19/04 A2981 RMK A01 T01880038  RH  037%=      5-min Rain = 0
KCR1 200053Z 16007KT 19/04 A2981 RMK A01 T01860038  RH  038%=      5-min Rain = 0
KCR1 200054Z 16007KT 18/04 A2981 RMK A01 T01840038  RH  038%=      5-min Rain = 0
KCR1 200055Z 16006KT 18/04 A2981 RMK A01 T01820038  RH  038%=      5-min Rain = 0
KCR1 200056Z 17007KT 18/04 A2981 RMK A01 T01800038  RH  039%=      5-min Rain = 0
KCR1 200057Z 16007KT 18/04 A2981 RMK A01 T01780038  RH  039%=      5-min Rain = 0
KCR1 200058Z 16006KT 18/04 A2981 RMK A01 T01760038  RH  040%=      5-min Rain = 0
KCR1 200059Z 16006KT 17/04 A2981 RMK A01 T01740037  RH  040%=      5-min Rain = 0
KCR1 200100Z 15006KT 17/04 A2981 RMK A01 T01720037  RH  041%=      5-min Rain = 0
KCR1 200101Z 16007KT 17/04 A2981 RMK A01 T01700037  RH  041%=      5-min Rain = 0
KCR1 200102Z 16006KT 17/04 A2981 RMK A01 T01680037  RH  041%=      5-min Rain = 0
KCR1 200103Z 16007KT 17/04 A2981 RMK A01 T01670037  RH  042%=      5-min Rain = 0
KCR1 200104Z 15007KT 17/04 A2981 RMK A01 T01660037  RH  042%=      5-min Rain = 0
KCR1 200105Z 15006KT 17/04 A2981 RMK A01 T01650037  RH  042%=      5-min Rain = 0
KCR1 200106Z 15006KT 16/04 A2981 RMK A01 T01630036  RH  043%=      5-min Rain = 0
KCR1 200107Z 15006KT 16/04 A2981 RMK A01 T01610037  RH  043%=      5-min Rain = 0
KCR1 200108Z 15006KT 16/04 A2981 RMK A01 T01600037  RH  044%=      5-min Rain = 0
KCR1 200109Z 14006KT 16/04 A2981 RMK A01 T01580037  RH  044%=      5-min Rain = 0
KCR1 200110Z 13007KT 16/04 A2981 RMK A01 T01560036  RH  045%=      5-min Rain = 0
KCR1 200111Z 14007KT 16/04 A2981 RMK A01 T01560037  RH  045%=      5-min Rain = 0
KCR1 200112Z 15007KT 16/04 A2981 RMK A01 T01550037  RH  045%=      5-min Rain = 0
KCR1 200113Z 15008KT 16/04 A2981 RMK A01 T01550037  RH  045%=      5-min Rain = 0
KCR1 200114Z 15008KT 16/04 A2981 RMK A01 T01550037  RH  045%=      5-min Rain = 0
KCR1 200115Z 15007KT 16/04 A2981 RMK A01 T01560038  RH  045%=      5-min Rain = 0
KCR1 200116Z 15007KT 16/04 A2981 RMK A01 T01560037  RH  045%=      5-min Rain = 0
KCR1 200117Z 14008KT 16/04 A2981 RMK A01 T01550037  RH  045%=      5-min Rain = 0
KCR1 200118Z 14008KT 15/04 A2981 RMK A01 T01540038  RH  046%=      5-min Rain = 0
KCR1 200119Z 14007KT 15/04 A2981 RMK A01 T01530037  RH  046%=      5-min Rain = 0
KCR1 200120Z 14007KT 15/04 A2981 RMK A01 T01530037  RH  046%=      5-min Rain = 0
KCR1 200121Z 14007KT 15/04 A2981 RMK A01 T01520037  RH  046%=      5-min Rain = 0
KCR1 200122Z 14006KT 15/04 A2981 RMK A01 T01510038  RH  047%=      5-min Rain = 0
KCR1 200123Z 15006KT 15/04 A2981 RMK A01 T01500037  RH  047%=      5-min Rain = 0
KCR1 200124Z 15006KT 15/04 A2981 RMK A01 T01500037  RH  047%=      5-min Rain = 0
KCR1 200125Z 15006KT 15/04 A2981 RMK A01 T01490037  RH  047%=      5-min Rain = 0
KCR1 200126Z 15006KT 15/04 A2981 RMK A01 T01480037  RH  047%=      5-min Rain = 0
KCR1 200127Z 15007KT 15/04 A2981 RMK A01 T01480037  RH  047%=      5-min Rain = 0
KCR1 200128Z 15007KT 15/04 A2981 RMK A01 T01470036  RH  047%=      5-min Rain = 0
KCR1 200129Z 14006KT 15/04 A2981 RMK A01 T01470037  RH  047%=      5-min Rain = 0
KCR1 200130Z 14006KT 15/04 A2981 RMK A01 T01470036  RH  048%=      5-min Rain = 0
KCR1 200131Z 14006KT 15/04 A2981 RMK A01 T01460036  RH  048%=      5-min Rain = 0
KCR1 200132Z 15006KT 15/04 A2981 RMK A01 T01450036  RH  048%=      5-min Rain = 0
KCR1 200133Z 15006KT 15/04 A2981 RMK A01 T01450036  RH  048%=      5-min Rain = 0
KCR1 200134Z 15006KT 14/04 A2981 RMK A01 T01440036  RH  048%=      5-min Rain = 0
KCR1 200135Z 15006KT 14/04 A2981 RMK A01 T01440036  RH  048%=      5-min Rain = 0
KCR1 200136Z 15006KT 14/04 A2981 RMK A01 T01430036  RH  048%=      5-min Rain = 0
KCR1 200137Z 15006KT 14/04 A2981 RMK A01 T01430036  RH  049%=      5-min Rain = 0
KCR1 200138Z 15006KT 14/04 A2981 RMK A01 T01420036  RH  049%=      5-min Rain = 0
KCR1 200139Z 15006KT 14/04 A2981 RMK A01 T01420036  RH  049%=      5-min Rain = 0
KCR1 200140Z 15006KT 14/04 A2981 RMK A01 T01410036  RH  049%=      5-min Rain = 0
KCR1 200141Z 15007KT 14/04 A2981 RMK A01 T01410036  RH  049%=      5-min Rain = 0
KCR1 200142Z 15007KT 14/04 A2981 RMK A01 T01410036  RH  049%=      5-min Rain = 0
KCR1 200143Z 15007KT 14/04 A2981 RMK A01 T01410036  RH  049%=      5-min Rain = 0
KCR1 200144Z 16007KT 14/04 A2981 RMK A01 T01410036  RH  049%=      5-min Rain = 0
KCR1 200145Z 16007KT 14/04 A2981 RMK A01 T01410036  RH  049%=      5-min Rain = 0
KCR1 200146Z 16007KT 14/04 A2981 RMK A01 T01410037  RH  050%=      5-min Rain = 0
KCR1 200147Z 16007KT 14/04 A2981 RMK A01 T01410038  RH  050%=      5-min Rain = 0
KCR1 200148Z 16007KT 14/04 A2981 RMK A01 T01400038  RH  050%=      5-min Rain = 0
KCR1 200149Z 16007KT 14/04 A2981 RMK A01 T01390038  RH  050%=      5-min Rain = 0
KCR1 200150Z 16007KT 14/04 A2981 RMK A01 T01400038  RH  050%=      5-min Rain = 0
KCR1 200151Z 16007KT 14/04 A2981 RMK A01 T01410039  RH  050%=      5-min Rain = 0
KCR1 200152Z 16007KT 14/04 A2981 RMK A01 T01410040  RH  050%=      5-min Rain = 0
KCR1 200153Z 17007KT 14/04 A2981 RMK A01 T01420040  RH  050%=      5-min Rain = 0
KCR1 200154Z 17007KT 14/04 A2981 RMK A01 T01430041  RH  050%=      5-min Rain = 0
KCR1 200155Z 17008KT 14/04 A2981 RMK A01 T01440042  RH  050%=      5-min Rain = 0
KCR1 200156Z 17007KT 15/04 A2981 RMK A01 T01450042  RH  050%=      5-min Rain = 0
KCR1 200157Z 16007KT 15/04 A2981 RMK A01 T01460042  RH  050%=      5-min Rain = 0
KCR1 200158Z 16007KT 15/04 A2981 RMK A01 T01470042  RH  049%=      5-min Rain = 0
KCR1 200159Z 16008KT 15/04 A2981 RMK A01 T01490043  RH  049%=      5-min Rain = 0
KCR1 200200Z 16008KT 15/04 A2981 RMK A01 T01500044  RH  049%=      5-min Rain = 0
KCR1 200201Z 16007KT 15/04 A2981 RMK A01 T01520043  RH  048%=      5-min Rain = 0
KCR1 200202Z 16007KT 15/04 A2981 RMK A01 T01520043  RH  048%=      5-min Rain = 0
KCR1 200203Z 16007KT 15/04 A2981 RMK A01 T01530043  RH  048%=      5-min Rain = 0
KCR1 200204Z 16007KT 15/04 A2981 RMK A01 T01540043  RH  048%=      5-min Rain = 0
KCR1 200205Z 15007KT 15/04 A2981 RMK A01 T01540043  RH  048%=      5-min Rain = 0
KCR1 200206Z 15007KT 15/04 A2981 RMK A01 T01530043  RH  048%=      5-min Rain = 0
KCR1 200207Z 15007KT 15/04 A2981 RMK A01 T01530042  RH  048%=      5-min Rain = 0
KCR1 200208Z 15007KT 15/04 A2981 RMK A01 T01530042  RH  047%=      5-min Rain = 0
KCR1 200209Z 15006KT 15/04 A2981 RMK A01 T01530041  RH  047%=      5-min Rain = 0
KCR1 200210Z 15007KT 15/04 A2981 RMK A01 T01530041  RH  047%=      5-min Rain = 0
KCR1 200211Z 16007KT 15/04 A2981 RMK A01 T01520041  RH  047%=      5-min Rain = 0
KCR1 200212Z 16007KT 15/04 A2981 RMK A01 T01520042  RH  048%=      5-min Rain = 0
KCR1 200213Z 16008KT 15/04 A2981 RMK A01 T01510042  RH  048%=      5-min Rain = 0
KCR1 200214Z 16008KT 15/04 A2981 RMK A01 T01510042  RH  048%=      5-min Rain = 0
KCR1 200215Z 16008KT 15/04 A2981 RMK A01 T01520042  RH  048%=      5-min Rain = 0
KCR1 200216Z 16008KT 15/04 A2981 RMK A01 T01530043  RH  048%=      5-min Rain = 0
KCR1 200217Z 16008KT 15/04 A2981 RMK A01 T01540043  RH  048%=      5-min Rain = 0
KCR1 200218Z 16009KT 15/04 A2981 RMK A01 T01540043  RH  047%=      5-min Rain = 0
KCR1 200219Z 16009KT 16/04 A2981 RMK A01 T01570044  RH  047%=      5-min Rain = 0
KCR1 200220Z 16009KT 16/04 A2981 RMK A01 T01600044  RH  046%=      5-min Rain = 0
KCR1 200221Z 16009KT 16/04 A2981 RMK A01 T01620044  RH  046%=      5-min Rain = 0
KCR1 200222Z 16009KT 16/04 A2981 RMK A01 T01620044  RH  045%=      5-min Rain = 0
KCR1 200223Z 17009KT 16/04 A2981 RMK A01 T01630044  RH  045%=      5-min Rain = 0
KCR1 200224Z 16009KT 16/04 A2981 RMK A01 T01630044  RH  045%=      5-min Rain = 0
KCR1 200225Z 16009KT 16/05 A2981 RMK A01 T01640045  RH  045%=      5-min Rain = 0
KCR1 200226Z 16009KT 16/04 A2981 RMK A01 T01640044  RH  045%=      5-min Rain = 0
KCR1 200227Z 17010KT 16/05 A2981 RMK A01 T01640045  RH  045%=      5-min Rain = 0
KCR1 200228Z 16009KT 16/05 A2981 RMK A01 T01640045  RH  045%=      5-min Rain = 0
KCR1 200229Z 16010KT 17/05 A2981 RMK A01 T01650045  RH  045%=      5-min Rain = 0
KCR1 200230Z 17011KT 17/05 A2981 RMK A01 T01650045  RH  045%=      5-min Rain = 0
KCR1 200231Z 17010KT 17/05 A2981 RMK A01 T01660046  RH  045%=      5-min Rain = 0
KCR1 200232Z 17010KT 17/05 A2981 RMK A01 T01670046  RH  045%=      5-min Rain = 0
KCR1 200233Z 17010KT 17/05 A2981 RMK A01 T01680047  RH  045%=      5-min Rain = 0
KCR1 200234Z 17011KT 17/05 A2981 RMK A01 T01680047  RH  045%=      5-min Rain = 0
KCR1 200235Z 17011KT 17/05 A2981 RMK A01 T01670047  RH  045%=      5-min Rain = 0
KCR1 200236Z 17011KT 17/05 A2981 RMK A01 T01670047  RH  045%=      5-min Rain = 0
KCR1 200237Z 17011KT 17/05 A2981 RMK A01 T01670047  RH  045%=      5-min Rain = 0
KCR1 200238Z 17011KT 17/05 A2981 RMK A01 T01670047  RH  045%=      5-min Rain = 0
KCR1 200239Z 17010KT 17/05 A2981 RMK A01 T01670047  RH  045%=      5-min Rain = 0
KCR1 200240Z 17011KT 17/05 A2981 RMK A01 T01680048  RH  045%=      5-min Rain = 0
KCR1 200241Z 17010KT 17/05 A2981 RMK A01 T01680048  RH  045%=      5-min Rain = 0
KCR1 200242Z 17011KT 17/05 A2981 RMK A01 T01680048  RH  045%=      5-min Rain = 0
KCR1 200243Z 17011KT 17/05 A2981 RMK A01 T01690049  RH  045%=      5-min Rain = 0
KCR1 200244Z 17011KT 17/05 A2981 RMK A01 T01690049  RH  045%=      5-min Rain = 0
KCR1 200245Z 17012KT 17/05 A2981 RMK A01 T01690049  RH  045%=      5-min Rain = 0
KCR1 200246Z 17013KT 17/05 A2981 RMK A01 T01700050  RH  045%=      5-min Rain = 0
KCR1 200247Z 17011KT 17/05 A2981 RMK A01 T01710051  RH  045%=      5-min Rain = 0
KCR1 200248Z 17012KT 17/05 A2981 RMK A01 T01710051  RH  045%=      5-min Rain = 0
KCR1 200249Z 17012KT 17/05 A2981 RMK A01 T01720051  RH  045%=      5-min Rain = 0
KCR1 200250Z 17012KT 17/05 A2981 RMK A01 T01720051  RH  045%=      5-min Rain = 0
KCR1 200251Z 17012KT 17/05 A2981 RMK A01 T01720051  RH  045%=      5-min Rain = 0
KCR1 200252Z 17011KT 17/05 A2981 RMK A01 T01730051  RH  045%=      5-min Rain = 0
KCR1 200253Z 17012KT 17/05 A2981 RMK A01 T01720051  RH  045%=      5-min Rain = 0
KCR1 200254Z 17012KT 17/05 A2981 RMK A01 T01720051  RH  045%=      5-min Rain = 0
KCR1 200255Z 17011KT 17/05 A2981 RMK A01 T01720052  RH  045%=      5-min Rain = 0
KCR1 200256Z 17011KT 17/05 A2981 RMK A01 T01720052  RH  045%=      5-min Rain = 0
KCR1 200257Z 17011KT 17/05 A2981 RMK A01 T01720051  RH  045%=      5-min Rain = 0
KCR1 200258Z 17011KT 17/05 A2981 RMK A01 T01710052  RH  045%=      5-min Rain = 0
KCR1 200259Z 17011KT 17/05 A2981 RMK A01 T01700052  RH  045%=      5-min Rain = 0
KCR1 200300Z 17011KT 17/05 A2981 RMK A01 T01690052  RH  046%=      5-min Rain = 0
KCR1 200301Z 16011KT 17/05 A2981 RMK A01 T01690052  RH  046%=      5-min Rain = 0
KCR1 200302Z 16011KT 17/05 A2981 RMK A01 T01680052  RH  046%=      5-min Rain = 0
KCR1 200303Z 16011KT 17/05 A2981 RMK A01 T01690053  RH  046%=      5-min Rain = 0
KCR1 200304Z 17011KT 17/05 A2981 RMK A01 T01680053  RH  046%=      5-min Rain = 0
KCR1 200305Z 17010KT 17/05 A2981 RMK A01 T01670053  RH  047%=      5-min Rain = 0
KCR1 200306Z 17010KT 17/05 A2981 RMK A01 T01670053  RH  047%=      5-min Rain = 0
KCR1 200307Z 17011KT 17/05 A2981 RMK A01 T01660053  RH  047%=      5-min Rain = 0
KCR1 200308Z 17010KT 17/05 A2981 RMK A01 T01660053  RH  047%=      5-min Rain = 0
KCR1 200309Z 17011KT 17/05 A2981 RMK A01 T01660054  RH  047%=      5-min Rain = 0
KCR1 200310Z 16010KT 17/05 A2981 RMK A01 T01660054  RH  048%=      5-min Rain = 0
KCR1 200311Z 17010KT 17/05 A2981 RMK A01 T01660054  RH  048%=      5-min Rain = 0
KCR1 200312Z 17010KT 17/05 A2981 RMK A01 T01650054  RH  048%=      5-min Rain = 0
KCR1 200313Z 17010KT 17/05 A2981 RMK A01 T01660054  RH  048%=      5-min Rain = 0
KCR1 200314Z 17010KT 17/05 A2981 RMK A01 T01650054  RH  048%=      5-min Rain = 0
KCR1 200315Z 17010KT 17/06 A2981 RMK A01 T01650055  RH  048%=      5-min Rain = 0
KCR1 200316Z 17010KT 17/06 A2981 RMK A01 T01650055  RH  048%=      5-min Rain = 0
KCR1 200317Z 17009KT 16/06 A2981 RMK A01 T01640055  RH  048%=      5-min Rain = 0
KCR1 200318Z 17009KT 16/06 A2981 RMK A01 T01640055  RH  048%=      5-min Rain = 0
KCR1 200319Z 17010KT 16/06 A2981 RMK A01 T01640055  RH  049%=      5-min Rain = 0
KCR1 200320Z 17010KT 16/06 A2981 RMK A01 T01640055  RH  049%=      5-min Rain = 0
KCR1 200321Z 17010KT 16/06 A2981 RMK A01 T01640055  RH  049%=      5-min Rain = 0
KCR1 200322Z 17010KT 16/06 A2981 RMK A01 T01640056  RH  049%=      5-min Rain = 0
KCR1 200323Z 17010KT 16/06 A2981 RMK A01 T01640055  RH  049%=      5-min Rain = 0
KCR1 200324Z 17010KT 16/06 A2981 RMK A01 T01640055  RH  048%=      5-min Rain = 0
KCR1 200325Z 17010KT 16/06 A2982 RMK A01 T01640055  RH  049%=      5-min Rain = 0
KCR1 200326Z 17010KT 16/06 A2982 RMK A01 T01640056  RH  049%=      5-min Rain = 0
KCR1 200327Z 17010KT 16/06 A2982 RMK A01 T01640056  RH  049%=      5-min Rain = 0
KCR1 200328Z 17011KT 16/06 A2982 RMK A01 T01640056  RH  049%=      5-min Rain = 0
KCR1 200329Z 17010KT 17/06 A2982 RMK A01 T01660057  RH  048%=      5-min Rain = 0
KCR1 200330Z 17010KT 17/06 A2982 RMK A01 T01670057  RH  048%=      5-min Rain = 0
KCR1 200331Z 17010KT 17/06 A2982 RMK A01 T01670057  RH  048%=      5-min Rain = 0
KCR1 200332Z 17012KT 17/06 A2982 RMK A01 T01680057  RH  048%=      5-min Rain = 0
KCR1 200333Z 17011KT 17/06 A2982 RMK A01 T01690057  RH  048%=      5-min Rain = 0
KCR1 200334Z 17012KT 17/06 A2982 RMK A01 T01700057  RH  047%=      5-min Rain = 0
KCR1 200335Z 16011KT 17/06 A2982 RMK A01 T01700057  RH  047%=      5-min Rain = 0
KCR1 200336Z 17011KT 17/06 A2982 RMK A01 T01710057  RH  047%=      5-min Rain = 0
KCR1 200337Z 17012KT 17/06 A2982 RMK A01 T01710058  RH  047%=      5-min Rain = 0
KCR1 200338Z 17012KT 17/06 A2982 RMK A01 T01710058  RH  047%=      5-min Rain = 0
KCR1 200339Z 16013KT 17/06 A2982 RMK A01 T01720057  RH  047%=      5-min Rain = 0
KCR1 200340Z 17011KT 17/06 A2982 RMK A01 T01720058  RH  047%=      5-min Rain = 0
KCR1 200341Z 16011KT 17/06 A2982 RMK A01 T01720058  RH  047%=      5-min Rain = 0
KCR1 200342Z 17011KT 17/06 A2982 RMK A01 T01720058  RH  047%=      5-min Rain = 0
KCR1 200343Z 16010KT 17/06 A2982 RMK A01 T01720058  RH  047%=      5-min Rain = 0
KCR1 200344Z 17010KT 17/06 A2982 RMK A01 T01720058  RH  047%=      5-min Rain = 0
KCR1 200345Z 17011KT 17/06 A2982 RMK A01 T01700058  RH  047%=      5-min Rain = 0
KCR1 200346Z 16011KT 17/06 A2982 RMK A01 T01700058  RH  048%=      5-min Rain = 0
KCR1 200347Z 17011KT 17/06 A2982 RMK A01 T01690058  RH  048%=      5-min Rain = 0
KCR1 200348Z 17010KT 17/06 A2982 RMK A01 T01690058  RH  048%=      5-min Rain = 0
KCR1 200349Z 17011KT 17/06 A2982 RMK A01 T01690059  RH  048%=      5-min Rain = 0
KCR1 200350Z 17010KT 17/06 A2982 RMK A01 T01690059  RH  048%=      5-min Rain = 0
KCR1 200351Z 17011KT 17/06 A2982 RMK A01 T01690059  RH  048%=      5-min Rain = 0
KCR1 200352Z 17010KT 17/06 A2982 RMK A01 T01680059  RH  048%=      5-min Rain = 0
KCR1 200353Z 17010KT 17/06 A2982 RMK A01 T01680059  RH  048%=      5-min Rain = 0
KCR1 200354Z 17010KT 17/06 A2982 RMK A01 T01680059  RH  049%=      5-min Rain = 0
KCR1 200355Z 17010KT 17/06 A2982 RMK A01 T01680060  RH  049%=      5-min Rain = 0
KCR1 200356Z 17010KT 17/06 A2982 RMK A01 T01680059  RH  049%=      5-min Rain = 0
KCR1 200357Z 17010KT 17/06 A2982 RMK A01 T01670059  RH  049%=      5-min Rain = 0
KCR1 200358Z 17010KT 17/06 A2982 RMK A01 T01670059  RH  049%=      5-min Rain = 0
KCR1 200359Z 17011KT 17/06 A2982 RMK A01 T01670060  RH  049%=      5-min Rain = 0
KCR1 200400Z 17010KT 17/06 A2982 RMK A01 T01670060  RH  049%=      5-min Rain = 0
KCR1 200401Z 17011KT 17/06 A2982 RMK A01 T01670060  RH  049%=      5-min Rain = 0
KCR1 200402Z 17011KT 17/06 A2982 RMK A01 T01670060  RH  049%=      5-min Rain = 0
KCR1 200403Z 17011KT 17/06 A2982 RMK A01 T01660060  RH  049%=      5-min Rain = 0
KCR1 200404Z 17010KT 17/06 A2982 RMK A01 T01670060  RH  049%=      5-min Rain = 0
KCR1 200405Z 17010KT 17/06 A2982 RMK A01 T01670061  RH  049%=      5-min Rain = 0
KCR1 200406Z 17010KT 17/06 A2982 RMK A01 T01660060  RH  050%=      5-min Rain = 0
KCR1 200407Z 17009KT 17/06 A2982 RMK A01 T01660061  RH  050%=      5-min Rain = 0
KCR1 200408Z 17010KT 17/06 A2982 RMK A01 T01650061  RH  050%=      5-min Rain = 0
KCR1 200409Z 17011KT 17/06 A2982 RMK A01 T01660061  RH  050%=      5-min Rain = 0
KCR1 200410Z 17011KT 17/06 A2982 RMK A01 T01660062  RH  050%=      5-min Rain = 0
KCR1 200411Z 17011KT 17/06 A2982 RMK A01 T01660061  RH  050%=      5-min Rain = 0
KCR1 200412Z 17011KT 17/06 A2982 RMK A01 T01660061  RH  050%=      5-min Rain = 0
KCR1 200413Z 17011KT 17/06 A2982 RMK A01 T01670062  RH  050%=      5-min Rain = 0
KCR1 200414Z 17010KT 17/06 A2982 RMK A01 T01670062  RH  050%=      5-min Rain = 0
KCR1 200415Z 17010KT 17/06 A2982 RMK A01 T01670062  RH  050%=      5-min Rain = 0
KCR1 200416Z 18010KT 17/06 A2982 RMK A01 T01660061  RH  050%=      5-min Rain = 0
KCR1 200417Z 18010KT 17/06 A2982 RMK A01 T01660062  RH  050%=      5-min Rain = 0
KCR1 200418Z 18010KT 17/06 A2982 RMK A01 T01650062  RH  050%=      5-min Rain = 0
KCR1 200419Z 18010KT 16/06 A2982 RMK A01 T01640062  RH  051%=      5-min Rain = 0
KCR1 200420Z 18011KT 16/06 A2982 RMK A01 T01640062  RH  051%=      5-min Rain = 0
KCR1 200421Z 18012KT 17/06 A2982 RMK A01 T01660062  RH  050%=      5-min Rain = 0
KCR1 200422Z 18011KT 17/06 A2982 RMK A01 T01670063  RH  050%=      5-min Rain = 0
KCR1 200423Z 18013KT 17/06 A2982 RMK A01 T01680063  RH  050%=      5-min Rain = 0
KCR1 200424Z 18012KT 17/06 A2982 RMK A01 T01700064  RH  050%=      5-min Rain = 0
KCR1 200425Z 18011KT 17/06 A2982 RMK A01 T01710064  RH  049%=      5-min Rain = 0
KCR1 200426Z 18012KT 17/06 A2982 RMK A01 T01700063  RH  049%=      5-min Rain = 0
KCR1 200427Z 18012KT 17/06 A2982 RMK A01 T01700064  RH  050%=      5-min Rain = 0
KCR1 200428Z 18012KT 17/06 A2982 RMK A01 T01710064  RH  049%=      5-min Rain = 0
KCR1 200429Z 18012KT 17/06 A2982 RMK A01 T01710064  RH  049%=      5-min Rain = 0
KCR1 200430Z 18012KT 17/06 A2982 RMK A01 T01720064  RH  049%=      5-min Rain = 0
KCR1 200431Z 18012KT 17/06 A2982 RMK A01 T01720064  RH  049%=      5-min Rain = 0
KCR1 200432Z 18011KT 17/06 A2982 RMK A01 T01720064  RH  049%=      5-min Rain = 0
KCR1 200433Z 18012KT 17/06 A2982 RMK A01 T01720064  RH  049%=      5-min Rain = 0
KCR1 200434Z 18012KT 17/06 A2982 RMK A01 T01720064  RH  049%=      5-min Rain = 0
KCR1 200435Z 18012KT 17/06 A2982 RMK A01 T01710064  RH  049%=      5-min Rain = 0
KCR1 200436Z 18012KT 17/06 A2982 RMK A01 T01710064  RH  049%=      5-min Rain = 0
KCR1 200437Z 18012KT 17/06 A2982 RMK A01 T01710064  RH  049%=      5-min Rain = 0
KCR1 200438Z 18012KT 17/06 A2982 RMK A01 T01720064  RH  049%=      5-min Rain = 0
KCR1 200439Z 18011KT 17/06 A2982 RMK A01 T01710064  RH  049%=      5-min Rain = 0
KCR1 200440Z 18011KT 17/06 A2982 RMK A01 T01700064  RH  050%=      5-min Rain = 0
KCR1 200441Z 18011KT 17/06 A2982 RMK A01 T01680064  RH  050%=      5-min Rain = 0
KCR1 200442Z 18011KT 17/06 A2982 RMK A01 T01680064  RH  050%=      5-min Rain = 0
KCR1 200443Z 18010KT 17/07 A2982 RMK A01 T01690065  RH  050%=      5-min Rain = 0
KCR1 200444Z 18011KT 17/06 A2982 RMK A01 T01680064  RH  050%=      5-min Rain = 0
KCR1 200445Z 18011KT 17/07 A2982 RMK A01 T01680065  RH  050%=      5-min Rain = 0
KCR1 200446Z 18011KT 17/06 A2982 RMK A01 T01680064  RH  050%=      5-min Rain = 0
KCR1 200447Z 18011KT 17/06 A2982 RMK A01 T01670064  RH  051%=      5-min Rain = 0
KCR1 200448Z 18012KT 17/06 A2982 RMK A01 T01660064  RH  051%=      5-min Rain = 0
KCR1 200449Z 18010KT 17/07 A2982 RMK A01 T01660065  RH  051%=      5-min Rain = 0
KCR1 200450Z 18011KT 17/06 A2982 RMK A01 T01650064  RH  051%=      5-min Rain = 0
KCR1 200451Z 18010KT 17/07 A2982 RMK A01 T01650065  RH  051%=      5-min Rain = 0
KCR1 200452Z 18012KT 16/07 A2982 RMK A01 T01640065  RH  052%=      5-min Rain = 0
KCR1 200453Z 18011KT 16/07 A2982 RMK A01 T01640065  RH  052%=      5-min Rain = 0
KCR1 200454Z 18012KT 16/07 A2982 RMK A01 T01640065  RH  052%=      5-min Rain = 0
KCR1 200455Z 18011KT 17/07 A2982 RMK A01 T01650065  RH  052%=      5-min Rain = 0
KCR1 200456Z 18012KT 17/07 A2982 RMK A01 T01650066  RH  052%=      5-min Rain = 0
KCR1 200457Z 18012KT 17/07 A2982 RMK A01 T01650066  RH  052%=      5-min Rain = 0
KCR1 200458Z 18012KT 17/07 A2982 RMK A01 T01650066  RH  052%=      5-min Rain = 0
KCR1 200459Z 18011KT 17/07 A2982 RMK A01 T01650065  RH  052%=      5-min Rain = 0
KCR1 200500Z 18012KT 17/07 A2982 RMK A01 T01650066  RH  052%=      5-min Rain = 0
KCR1 200501Z 18011KT 17/07 A2982 RMK A01 T01650066  RH  052%=      5-min Rain = 0
KCR1 200502Z 18011KT 17/07 A2982 RMK A01 T01650066  RH  052%=      5-min Rain = 0
KCR1 200503Z 18011KT 17/07 A2982 RMK A01 T01650066  RH  052%=      5-min Rain = 0
KCR1 200504Z 18011KT 16/07 A2982 RMK A01 T01640066  RH  052%=      5-min Rain = 0
KCR1 200505Z 18011KT 16/07 A2982 RMK A01 T01640066  RH  052%=      5-min Rain = 0
KCR1 200506Z 18012KT 16/07 A2982 RMK A01 T01640066  RH  052%=      5-min Rain = 0
KCR1 200507Z 18011KT 16/07 A2982 RMK A01 T01640066  RH  052%=      5-min Rain = 0
KCR1 200508Z 18011KT 16/07 A2982 RMK A01 T01640066  RH  053%=      5-min Rain = 0
KCR1 200509Z 18012KT 16/07 A2982 RMK A01 T01630066  RH  053%=      5-min Rain = 0
KCR1 200510Z 18012KT 16/07 A2982 RMK A01 T01630067  RH  053%=      5-min Rain = 0
KCR1 200511Z 18011KT 16/07 A2982 RMK A01 T01640067  RH  053%=      5-min Rain = 0
KCR1 200512Z 18011KT 16/07 A2982 RMK A01 T01630066  RH  053%=      5-min Rain = 0
KCR1 200513Z 17011KT 16/07 A2982 RMK A01 T01630067  RH  053%=      5-min Rain = 0
KCR1 200514Z 18011KT 16/07 A2982 RMK A01 T01620067  RH  053%=      5-min Rain = 0
KCR1 200515Z 18012KT 16/07 A2982 RMK A01 T01620067  RH  053%=      5-min Rain = 0
KCR1 200516Z 17012KT 16/07 A2982 RMK A01 T01620067  RH  053%=      5-min Rain = 0
KCR1 200517Z 17012KT 16/07 A2982 RMK A01 T01620067  RH  053%=      5-min Rain = 0
KCR1 200518Z 18011KT 16/07 A2982 RMK A01 T01610067  RH  053%=      5-min Rain = 0
KCR1 200519Z 17011KT 16/07 A2982 RMK A01 T01610067  RH  054%=      5-min Rain = 0
KCR1 200520Z 18012KT 16/07 A2982 RMK A01 T01610067  RH  054%=      5-min Rain = 0
KCR1 200521Z 18011KT 16/07 A2982 RMK A01 T01600067  RH  054%=      5-min Rain = 0
KCR1 200522Z 17012KT 16/07 A2982 RMK A01 T01610067  RH  054%=      5-min Rain = 0
KCR1 200523Z 18011KT 16/07 A2982 RMK A01 T01610067  RH  054%=      5-min Rain = 0
KCR1 200524Z 18012KT 16/07 A2982 RMK A01 T01610067  RH  054%=      5-min Rain = 0
KCR1 200525Z 18012KT 16/07 A2982 RMK A01 T01620068  RH  054%=      5-min Rain = 0
KCR1 200526Z 18012KT 16/07 A2982 RMK A01 T01620068  RH  054%=      5-min Rain = 0
KCR1 200527Z 18012KT 16/07 A2982 RMK A01 T01620068  RH  054%=      5-min Rain = 0
KCR1 200528Z 18012KT 16/07 A2982 RMK A01 T01610068  RH  054%=      5-min Rain = 0
KCR1 200529Z 18011KT 16/07 A2982 RMK A01 T01610068  RH  054%=      5-min Rain = 0
KCR1 200530Z 18012KT 16/07 A2982 RMK A01 T01620068  RH  054%=      5-min Rain = 0
KCR1 200531Z 18012KT 16/07 A2982 RMK A01 T01610069  RH  054%=      5-min Rain = 0
KCR1 200532Z 18011KT 16/07 A2982 RMK A01 T01610068  RH  054%=      5-min Rain = 0
KCR1 200533Z 18011KT 16/07 A2982 RMK A01 T01610069  RH  054%=      5-min Rain = 0
KCR1 200534Z 18011KT 16/07 A2982 RMK A01 T01610069  RH  054%=      5-min Rain = 0
KCR1 200535Z 18011KT 16/07 A2982 RMK A01 T01600069  RH  055%=      5-min Rain = 0
KCR1 200536Z 18012KT 16/07 A2982 RMK A01 T01600069  RH  055%=      5-min Rain = 0
KCR1 200537Z 18011KT 16/07 A2982 RMK A01 T01600069  RH  055%=      5-min Rain = 0
KCR1 200538Z 18012KT 16/07 A2982 RMK A01 T01600069  RH  055%=      5-min Rain = 0
KCR1 200539Z 18010KT 16/07 A2982 RMK A01 T01610069  RH  055%=      5-min Rain = 0
KCR1 200540Z 18010KT 16/07 A2982 RMK A01 T01600069  RH  055%=      5-min Rain = 0
KCR1 200541Z 18011KT 16/07 A2982 RMK A01 T01590069  RH  055%=      5-min Rain = 0
KCR1 200542Z 18010KT 16/07 A2982 RMK A01 T01590069  RH  055%=      5-min Rain = 0
KCR1 200543Z 18010KT 16/07 A2982 RMK A01 T01590069  RH  055%=      5-min Rain = 0
KCR1 200544Z 18011KT 16/07 A2982 RMK A01 T01580070  RH  056%=      5-min Rain = 0
KCR1 200545Z 18010KT 16/07 A2982 RMK A01 T01580070  RH  056%=      5-min Rain = 0
KCR1 200546Z 18011KT 16/07 A2982 RMK A01 T01580070  RH  056%=      5-min Rain = 0
KCR1 200547Z 18011KT 16/07 A2982 RMK A01 T01590070  RH  056%=      5-min Rain = 0
KCR1 200548Z 18010KT 16/07 A2982 RMK A01 T01590070  RH  056%=      5-min Rain = 0
KCR1 200549Z 18011KT 16/07 A2982 RMK A01 T01590070  RH  056%=      5-min Rain = 0
KCR1 200550Z 18011KT 16/07 A2982 RMK A01 T01580070  RH  056%=      5-min Rain = 0
KCR1 200551Z 18011KT 16/07 A2982 RMK A01 T01580070  RH  056%=      5-min Rain = 0
KCR1 200552Z 18010KT 16/07 A2982 RMK A01 T01590071  RH  056%=      5-min Rain = 0
KCR1 200553Z 18010KT 16/07 A2982 RMK A01 T01590071  RH  056%=      5-min Rain = 0
KCR1 200554Z 18011KT 16/07 A2982 RMK A01 T01590071  RH  056%=      5-min Rain = 0
KCR1 200555Z 18010KT 16/07 A2982 RMK A01 T01580071  RH  056%=      5-min Rain = 0
KCR1 200556Z 18009KT 16/07 A2982 RMK A01 T01580071  RH  056%=      5-min Rain = 0
KCR1 200557Z 18009KT 16/07 A2982 RMK A01 T01580071  RH  056%=      5-min Rain = 0
KCR1 200558Z 18009KT 16/07 A2982 RMK A01 T01570071  RH  057%=      5-min Rain = 0
KCR1 200559Z 18009KT 16/07 A2982 RMK A01 T01560071  RH  057%=      5-min Rain = 0

Page generated in 0.119 seconds.